ECMWFFLT1_sfc_dewp_198.txt.gz
Dewpoint
56 57 59 59 60 61 60 62 63 64 65 64 64 64 64 64 65 65 66 66 65 65 67 67 67 65 64 63 63 63 61 61 62 61 61 60 62 64 64 64 64 63 62 62 60 57 57 57 59 62 62 63 63 63 62 60 60 60 61 62 59 59 60
58 57 56 57 57 58 60 60 62 62 63 65 65 65 65 64 65 66 66 66 67 67 68 67 66 67 66 66 67 66 66 65 64 64 63 61 61 61 63 64 62 61 61 61 60 59 58 58 56 58 60 62 64 63 64 62 60 61 60 61 60 59 61
57 58 57 56 57 58 58 59 60 61 62 64 65 65 65 64 65 65 66 66 67 65 66 66 64 65 65 66 68 68 67 67 66 66 66 65 64 64 63 63 62 62 61 60 60 60 58 58 57 56 61 61 62 64 64 64 62 60 60 61 61 60 59
57 59 58 58 55 56 57 58 58 59 62 63 64 65 66 65 66 65 66 66 67 67 65 65 65 65 66 67 66 65 65 66 66 67 67 67 66 65 65 64 63 61 62 61 61 61 62 61 59 58 59 57 57 58 65 63 63 60 60 60 60 61 61
57 56 57 58 56 56 55 55 57 59 62 63 64 64 66 66 66 66 67 67 66 68 66 65 66 66 67 67 66 66 65 65 65 66 67 67 67 66 66 65 65 64 63 62 62 62 62 62 61 59 59 60 60 57 58 62 64 62 60 59 59 60 60
59 58 58 57 58 57 56 56 57 58 59 61 63 64 66 67 66 66 67 66 66 67 67 66 67 66 66 66 65 65 66 65 66 65 67 68 67 66 65 66 63 64 63 64 64 63 63 63 61 60 62 62 58 57 55 57 58 60 60 58 58 58 58
60 60 61 59 58 57 57 58 58 58 59 61 62 63 65 65 65 65 66 66 67 66 66 66 66 66 66 66 66 65 66 66 66 66 66 65 66 66 65 64 65 64 65 64 64 64 64 63 63 61 60 61 61 60 60 55 55 55 57 57 58 58 58
59 59 59 61 62 61 58 60 61 60 61 62 62 63 63 65 64 65 66 67 66 66 66 66 65 65 66 66 66 66 66 67 67 66 65 65 64 64 66 65 65 65 64 63 64 65 63 64 63 63 63 60 60 59 57 56 55 56 56 57 56 57 58
58 59 59 60 61 62 63 61 62 63 64 64 65 64 64 64 65 65 65 66 66 66 67 66 66 66 67 67 66 66 66 66 66 65 65 65 65 65 67 66 65 64 65 64 64 64 64 64 64 65 63 62 60 57 58 57 57 55 56 56 56 57 57
58 59 59 60 61 62 63 63 62 63 64 64 64 65 65 65 65 65 65 65 65 66 66 65 66 66 66 67 67 67 68 68 66 65 66 67 66 67 67 67 65 65 64 65 65 64 64 65 64 65 62 62 63 59 59 56 58 57 56 55 54 56 58
57 57 58 59 60 61 61 62 62 62 62 63 63 65 65 65 64 64 64 64 64 65 65 65 66 65 65 65 66 66 66 66 65 66 67 66 65 66 66 65 66 65 64 65 66 65 65 64 63 64 63 62 63 61 59 58 58 59 59 59 58 55 56
57 57 57 59 60 60 59 60 60 61 62 62 62 63 63 63 63 64 64 64 63 63 64 64 65 65 65 66 65 66 65 65 65 65 65 65 64 65 65 65 66 65 65 66 67 67 66 66 65 63 63 64 63 64 63 61 58 60 61 60 60 59 58
56 57 58 59 59 58 58 58 58 60 61 61 62 61 61 62 63 63 63 63 64 63 63 63 63 64 65 64 65 66 66 64 63 63 64 64 63 64 64 64 65 65 65 66 67 66 66 66 65 64 63 63 63 64 64 62 60 58 61 61 61 60 59
56 56 58 59 59 59 59 59 59 60 59 61 61 62 61 59 61 62 62 62 62 63 62 63 63 64 63 64 65 64 62 63 65 64 66 64 64 64 64 64 64 64 65 65 66 66 65 65 64 65 65 63 62 64 64 64 62 59 61 62 62 60 62
54 55 58 58 58 58 58 59 60 60 61 60 61 60 60 62 61 61 61 61 62 62 63 62 62 62 63 63 62 64 63 62 63 62 65 63 63 64 65 64 63 63 63 64 63 65 65 64 62 62 62 63 62 63 64 62 60 59 60 61 61 62 61
53 55 56 57 57 57 58 59 58 59 59 60 60 60 61 61 61 60 60 60 60 60 61 63 63 62 62 61 62 64 63 63 63 63 62 63 62 63 61 62 62 63 63 63 64 65 65 64 63 64 60 61 61 62 63 62 62 61 61 60 61 59 61
53 54 54 54 55 56 57 58 58 58 58 58 57 59 59 59 58 59 60 58 58 61 59 60 61 61 62 60 60 62 62 62 62 62 62 61 61 61 62 63 63 63 64 64 64 66 64 64 65 65 65 62 61 61 63 64 62 62 62 61 60 58 59
52 53 54 54 55 55 56 57 57 56 56 58 58 59 59 58 60 59 59 57 55 54 53 53 53 54 56 60 61 61 60 60 61 61 62 62 62 62 62 62 62 63 64 64 65 64 64 64 63 64 63 63 62 62 62 62 62 62 61 60 61 61 60
52 53 53 54 54 54 54 55 55 56 56 56 58 58 58 59 56 54 53 51 50 50 49 48 48 48 50 54 57 61 62 61 62 62 63 63 63 63 63 62 62 62 62 62 62 63 64 62 63 63 62 63 61 60 62 63 62 62 62 62 62 61 62
51 52 53 53 53 53 53 54 53 54 55 56 56 58 56 54 53 51 49 48 48 47 47 45 45 45 46 48 52 57 59 61 60 61 60 61 62 63 64 63 64 64 63 62 63 63 63 64 63 64 63 65 63 62 61 61 60 62 62 61 61 62 61
50 51 51 51 51 52 52 52 52 53 54 55 56 55 53 52 51 49 47 46 46 46 44 43 42 41 42 44 47 52 57 59 59 60 61 60 61 61 62 62 62 62 61 62 62 62 63 64 63 63 64 63 64 62 63 64 64 64 62 61 60 60 61
49 49 49 50 50 51 50 51 51 51 53 54 55 55 53 51 49 47 45 44 43 43 43 42 41 40 40 41 43 48 55 57 58 58 58 59 60 60 60 61 63 62 61 61 58 57 57 57 61 62 62 63 62 63 61 61 62 64 62 62 61 62 62
48 49 49 49 49 49 49 50 50 50 51 51 52 53 52 52 49 47 45 44 43 43 41 41 41 39 39 40 42 46 52 56 57 56 57 57 58 58 59 60 60 61 61 60 57 53 51 51 53 57 60 62 63 61 61 61 61 62 62 62 62 61 62
47 47 48 49 49 48 47 48 48 48 50 50 50 51 51 50 51 49 45 43 43 43 41 38 38 37 37 38 41 45 50 54 56 57 57 57 56 57 57 57 58 59 60 58 55 50 50 49 49 48 49 51 55 60 61 61 62 62 60 59 62 61 61
46 47 47 46 47 47 47 47 47 48 49 50 50 50 49 48 48 48 48 45 44 43 41 38 36 37 37 37 39 43 50 52 54 54 53 51 52 54 55 56 57 58 57 53 49 48 48 47 46 47 47 48 48 48 50 58 60 60 61 60 62 61 61
44 45 46 46 47 47 46 47 47 47 48 49 49 48 48 48 48 48 47 45 45 42 40 36 36 36 36 36 37 41 48 49 50 50 49 48 49 50 51 52 54 55 52 50 47 44 45 45 45 46 48 50 51 48 45 44 46 57 61 61 61 61 61
44 44 44 44 45 45 46 46 48 48 47 48 48 48 48 48 47 47 47 46 45 43 39 36 35 36 36 36 36 38 47 48 49 48 48 47 48 49 50 50 50 51 50 45 43 42 43 44 45 47 51 54 57 57 51 45 44 44 50 59 61 60 61
44 44 44 44 45 45 46 47 46 46 47 47 47 46 46 47 46 46 46 45 44 44 40 35 35 35 35 35 36 39 46 47 46 46 47 46 47 48 48 48 49 50 49 45 41 40 40 41 43 46 48 50 52 54 57 58 59 61 58 57 60 61 61
44 43 44 44 44 45 45 46 46 46 47 46 46 45 46 46 45 45 44 44 44 43 41 35 35 35 35 35 36 43 44 44 44 45 45 45 45 46 46 46 46 47 46 46 40 38 38 40 42 45 47 48 49 51 53 56 52 53 58 60 60 61 62
44 44 44 44 44 44 45 45 45 45 45 45 45 45 45 45 44 43 43 43 43 42 41 37 35 35 35 35 37 42 42 41 43 43 43 44 43 44 45 43 44 44 44 43 38 36 37 39 42 43 44 46 48 49 50 52 50 48 47 47 47 47 47
43 43 43 43 44 45 44 44 44 45 44 43 43 43 43 43 43 42 41 41 41 41 41 38 35 35 35 35 36 40 39 40 42 41 42 43 43 43 43 42 43 42 41 39 36 36 36 39 41 42 44 44 45 46 48 49 51 53 48 48 46 44 44
43 43 42 44 45 44 43 43 44 44 43 42 43 42 42 42 41 41 41 42 41 40 40 39 35 35 35 35 35 39 38 38 39 40 40 40 42 41 42 42 44 40 38 36 35 35 36 38 40 41 42 43 44 45 47 48 48 47 48 48 49 52 57
44 43 42 43 44 43 43 43 44 44 43 41 41 42 42 41 40 40 41 41 41 40 39 39 38 35 35 34 34 36 38 37 36 37 38 38 39 41 40 40 40 36 34 34 34 35 35 36 38 41 42 42 43 44 44 43 44 44 45 46 47 49 50
44 44 43 43 43 43 43 43 44 43 42 43 42 42 43 42 40 39 39 40 40 40 40 39 39 35 35 35 34 34 36 36 35 36 37 38 38 38 37 37 38 37 34 34 34 34 35 35 37 42 43 40 39 38 38 41 43 44 45 46 47 48 49
45 44 43 43 43 42 43 42 42 42 41 42 43 42 42 41 39 38 38 38 40 40 40 38 38 36 35 35 35 34 34 36 34 36 37 37 37 37 37 36 37 35 33 33 34 34 34 35 36 38 35 34 35 35 38 41 44 44 45 45 45 45 47
43 43 44 43 42 42 42 42 42 42 42 42 42 41 41 41 40 38 38 37 37 38 39 40 37 37 35 35 35 34 34 35 34 37 37 38 38 37 36 36 36 35 33 34 33 34 34 36 35 34 34 34 34 34 38 44 44 45 45 46 46 46 47
41 42 42 42 41 41 41 41 40 40 40 39 37 38 37 39 38 37 36 36 37 36 38 36 37 36 35 35 35 34 34 34 35 35 36 37 37 36 36 35 33 33 33 34 33 34 34 35 33 33 33 34 34 37 39 39 39 41 42 44 45 46 47

ECMWFFLT1_sfc_dewp_204.txt.gz
Dewpoint
56 56 57 58 59 59 60 60 61 62 62 60 61 60 59 60 63 66 66 66 66 65 67 66 66 66 66 66 66 65 65 64 63 61 60 60 59 59 61 62 64 62 63 64 63 61 59 57 57 63 64 64 64 64 63 62 63 66 65 65 62 60 60
58 58 57 57 57 59 59 59 59 59 59 61 60 59 59 59 62 67 66 66 66 66 66 66 66 66 66 66 65 65 65 65 64 64 63 62 61 60 61 65 61 60 61 64 63 63 60 57 58 59 59 63 64 64 65 65 65 65 65 63 63 60 60
57 58 58 58 58 58 58 58 59 60 61 62 63 60 60 59 59 63 66 65 66 65 65 65 65 65 65 65 66 66 66 65 65 65 64 63 62 63 62 66 63 63 62 61 63 62 62 61 58 59 60 60 59 61 63 64 64 63 63 63 62 61 60
58 58 58 58 58 59 59 59 58 59 61 61 63 62 62 60 61 63 65 66 65 66 65 65 65 65 65 66 66 66 66 66 65 65 64 64 64 63 63 64 63 62 61 60 60 60 60 60 60 60 60 59 60 60 61 62 62 62 62 62 61 61 60
57 56 58 57 59 57 58 59 60 60 60 60 61 62 63 62 64 63 63 64 64 65 65 65 65 65 65 65 65 65 66 66 66 66 65 64 64 63 63 64 65 64 63 62 61 61 61 61 60 60 59 61 61 60 60 61 62 62 62 61 61 61 61
57 58 57 58 58 61 60 59 59 60 60 60 61 61 64 64 65 65 64 63 62 63 64 65 65 64 64 65 65 65 66 65 65 65 65 65 64 64 64 65 65 65 64 64 64 64 62 62 62 60 60 62 61 60 60 61 61 61 62 62 62 61 60
58 58 59 58 59 59 60 60 59 59 60 60 60 61 62 62 65 63 63 64 63 63 63 62 63 64 63 64 64 64 64 65 65 65 65 65 66 66 66 65 65 65 65 64 64 64 63 62 62 61 60 61 61 60 61 60 59 58 59 60 60 61 62
58 58 57 58 59 60 60 59 61 61 61 60 62 62 62 61 62 65 63 62 62 62 62 62 63 64 63 63 62 63 64 64 64 64 64 65 64 65 65 65 64 65 64 65 65 65 64 63 62 62 61 59 59 59 59 61 61 59 59 59 59 60 62
57 58 58 58 60 60 60 60 60 60 61 61 61 63 62 62 62 62 63 62 62 63 63 62 62 63 63 63 64 62 62 64 63 63 64 64 64 64 64 64 64 65 65 65 65 64 64 64 64 63 62 61 59 57 59 59 61 59 58 60 59 61 60
56 57 58 58 58 59 60 61 61 60 61 61 60 61 61 62 62 62 62 62 63 63 63 62 64 64 63 62 61 63 62 63 62 62 63 63 63 64 64 64 64 65 65 65 65 64 64 64 63 63 62 60 61 59 58 58 58 57 58 62 61 63 64
55 55 56 56 57 58 58 59 60 59 60 60 60 61 62 61 62 62 61 62 64 63 62 63 63 64 64 63 63 64 64 64 63 63 63 63 63 64 64 64 65 64 64 64 64 64 64 65 64 63 64 64 63 60 60 58 59 61 62 60 64 63 68
54 55 55 56 58 56 56 58 58 60 60 61 61 61 61 60 60 61 60 61 61 61 61 62 62 63 63 63 63 63 64 64 63 63 63 62 62 62 62 62 62 63 64 64 64 63 64 63 63 63 63 64 62 62 61 61 58 61 61 60 63 64 64
53 54 55 55 57 56 56 56 56 58 60 61 61 59 60 61 59 60 61 62 60 60 59 60 61 61 62 62 62 62 62 62 62 63 63 63 63 63 63 61 61 61 62 64 63 63 64 64 64 64 64 63 62 63 62 61 60 60 62 62 64 63 64
54 53 54 55 56 56 57 57 57 57 57 57 60 59 59 59 59 60 60 59 56 56 57 58 58 58 58 59 60 61 61 61 60 61 62 62 62 61 62 62 63 63 64 63 64 63 63 64 64 63 62 62 62 63 63 62 61 60 61 64 64 63 64
54 54 55 55 56 55 55 56 56 56 57 58 59 57 56 57 55 55 54 52 51 51 51 53 54 55 54 55 57 60 61 60 60 60 61 61 61 62 62 61 62 62 64 64 63 63 63 63 64 63 63 63 62 62 63 61 61 60 60 62 63 64 64
53 54 55 55 55 54 55 55 56 57 57 57 58 56 55 54 53 52 50 50 49 49 48 48 49 49 50 50 51 53 57 60 61 61 61 60 60 62 61 61 61 61 62 62 63 63 63 63 62 62 62 63 62 62 63 64 62 60 60 60 62 63 63
53 53 54 54 55 54 54 54 55 57 56 56 55 55 53 51 50 49 48 47 46 44 43 44 44 44 45 47 48 50 51 54 58 59 60 60 60 60 60 60 60 61 61 61 61 62 62 62 62 62 62 63 63 63 62 63 63 61 60 60 61 63 63
52 53 53 55 54 54 54 54 54 54 55 54 53 53 52 50 48 45 45 42 42 41 42 41 41 41 42 44 45 47 50 52 56 58 60 60 60 61 61 61 60 59 58 57 57 57 58 58 60 62 62 63 63 63 63 62 61 62 61 60 61 63 64
52 53 53 53 54 53 53 52 52 54 53 53 53 53 51 49 46 43 41 40 40 40 40 39 39 39 39 41 43 45 48 51 55 57 57 58 58 60 59 59 58 56 56 55 55 55 53 54 55 57 56 58 61 62 62 62 63 61 61 61 60 61 63
52 53 53 53 53 51 51 52 50 51 52 52 51 51 50 47 47 45 43 41 40 39 39 39 39 38 38 40 41 43 47 50 53 56 56 55 56 57 58 58 54 51 50 49 50 49 49 50 53 53 54 53 56 58 60 61 62 61 60 60 61 61 61
51 52 53 52 51 52 51 51 51 51 51 51 50 49 50 49 48 46 45 43 41 40 38 38 38 37 38 39 40 42 45 49 52 52 52 51 52 53 57 55 52 49 46 45 45 44 44 45 46 47 48 49 51 53 56 58 60 60 60 60 60 60 61
53 53 51 50 51 51 51 52 50 50 50 50 51 49 48 48 48 46 45 44 41 40 38 38 38 37 37 38 39 42 45 48 51 50 49 48 50 51 54 52 50 49 48 48 45 44 44 44 43 42 44 45 47 50 53 55 57 59 59 59 59 60 60
47 49 49 48 48 49 49 50 50 49 49 49 48 49 48 48 47 46 45 42 41 40 39 38 39 38 38 39 39 42 45 49 50 49 48 49 50 51 50 53 51 51 48 46 44 42 41 42 43 42 42 44 45 47 50 53 55 57 58 58 58 59 58
47 45 48 48 48 46 46 48 48 48 49 49 50 49 48 46 47 47 44 41 40 40 39 37 38 37 37 38 40 42 44 49 49 48 48 48 49 49 47 48 50 48 46 45 41 40 40 40 41 41 42 44 47 47 49 52 54 55 56 56 57 58 58
44 45 47 45 45 45 47 47 47 47 48 49 49 49 48 47 46 47 46 41 40 39 38 39 36 37 37 37 39 42 45 49 48 47 47 48 47 47 46 47 48 47 45 43 40 36 39 40 40 41 42 43 44 44 45 50 51 52 53 54 55 56 57
43 45 45 46 47 47 46 46 47 47 48 49 49 47 47 47 46 47 46 42 40 39 38 38 36 36 37 37 38 41 47 47 46 46 46 46 47 45 45 45 44 43 41 44 40 36 36 37 40 42 44 45 46 46 43 42 44 50 51 52 51 51 51
43 44 45 46 47 45 45 46 48 49 48 48 48 47 47 47 46 45 46 44 41 39 37 38 35 36 36 36 37 40 44 46 46 46 46 46 46 44 43 43 41 40 39 37 35 35 35 36 38 41 43 44 45 46 46 45 42 42 44 44 44 43 44
42 42 43 44 46 44 45 46 46 47 47 47 47 47 46 46 45 45 45 45 43 40 37 36 35 35 35 36 37 43 43 44 44 45 45 46 44 43 42 41 40 38 36 35 36 36 35 35 38 41 42 43 43 44 46 46 43 41 42 43 42 43 44
44 42 42 43 43 43 45 46 46 48 48 48 48 48 47 45 44 43 44 44 44 41 37 36 35 35 35 35 38 44 42 42 43 44 44 44 44 42 40 38 37 36 35 35 37 36 36 37 39 40 41 40 40 40 42 43 40 41 43 42 42 43 44
42 42 42 43 42 44 45 46 47 48 49 47 47 47 46 45 44 43 42 42 44 42 38 36 35 35 35 35 39 41 40 39 40 42 43 45 44 42 40 37 35 35 35 34 37 35 35 38 37 39 38 38 38 39 40 40 40 39 40 40 40 40 40
40 40 41 41 43 45 45 46 47 47 48 47 47 46 45 44 44 43 43 42 43 43 39 37 35 35 35 35 39 40 39 38 39 40 40 43 44 42 42 43 41 35 35 35 35 35 35 37 36 37 37 36 36 36 37 37 38 40 40 40 41 41 41
42 41 40 42 44 44 45 46 47 47 45 45 45 46 43 43 43 44 46 44 42 43 41 38 36 35 35 35 37 38 37 36 36 37 39 39 42 43 43 42 43 39 37 37 35 35 35 37 36 36 37 35 35 35 35 36 36 38 40 40 40 42 42
44 43 41 43 44 45 46 47 48 49 46 41 42 42 44 47 43 42 45 45 44 44 41 37 37 35 35 35 36 37 36 35 34 35 37 38 40 39 39 40 42 37 36 35 35 35 35 35 36 37 38 35 35 35 36 35 38 40 39 39 39 40 40
45 45 44 46 47 46 47 47 47 47 47 46 48 47 45 47 45 46 47 44 43 44 43 39 37 35 35 35 35 35 34 34 33 35 36 37 38 37 36 36 38 39 36 36 35 35 35 35 36 40 38 34 35 37 37 37 39 42 38 39 38 38 38
45 45 45 47 48 47 48 48 48 46 48 47 48 48 47 45 47 45 45 42 43 41 40 40 37 35 35 35 34 34 33 34 35 36 35 36 36 36 35 34 36 38 36 35 35 35 35 35 35 42 37 34 35 35 38 41 39 37 37 37 36 36 36
44 42 44 46 47 46 48 47 48 48 47 46 47 46 45 44 44 43 45 41 41 40 37 35 37 36 35 35 34 33 33 34 35 34 34 35 36 35 33 34 35 38 35 35 35 36 36 35 37 37 34 34 34 35 37 36 36 36 36 35 35 35 34
42 44 43 47 45 46 46 46 44 47 45 45 44 44 42 41 42 39 38 40 38 39 36 33 34 34 33 33 33 32 33 34 34 34 34 35 34 33 31 33 35 34 35 35 35 36 35 36 36 35 34 34 35 36 35 34 34 35 34 33 33 33 33

ECMWFFLT1_sfc_dewp_210.txt.gz
Dewpoint
54 55 56 57 58 59 58 58 58 59 60 60 60 61 61 61 62 61 61 62 62 62 64 62 62 62 63 63 63 61 62 62 62 61 60 60 60 60 60 59 60 60 60 59 58 56 54 53 54 56 58 60 60 62 62 62 63 63 63 63 64 64 64
56 57 57 57 57 58 57 58 58 58 59 60 60 61 61 61 62 62 60 61 61 62 63 62 62 62 62 62 61 62 62 63 62 62 61 61 61 60 60 59 59 60 59 60 60 59 56 54 55 55 57 57 59 61 61 62 63 64 64 63 63 63 64
55 56 56 56 56 57 56 57 58 58 58 59 60 60 61 61 60 60 61 60 60 60 62 61 60 60 60 60 60 61 62 62 62 62 61 61 61 61 61 60 59 59 58 57 57 57 58 57 56 56 57 57 56 57 59 60 62 62 63 64 64 64 64
55 55 55 55 56 56 56 57 57 57 58 59 59 60 60 61 61 61 60 60 60 61 61 60 60 61 62 62 61 62 63 62 62 62 62 62 62 61 61 60 60 60 58 56 57 57 57 56 56 57 57 58 58 58 59 60 60 61 61 62 63 64 64
55 55 55 55 55 56 56 57 57 57 58 59 59 59 59 60 61 60 60 59 60 59 60 60 60 60 60 62 62 62 61 61 61 62 62 62 61 61 60 61 61 60 60 60 59 58 58 58 57 57 57 55 57 58 59 59 61 61 61 61 61 61 62
55 55 55 55 55 56 57 57 56 56 58 58 58 58 59 60 61 60 60 59 59 59 60 59 59 60 59 60 61 61 61 62 62 62 61 61 62 61 61 62 62 60 60 60 60 60 59 58 58 57 57 58 57 57 57 58 58 61 61 61 61 61 61
54 56 55 55 56 56 56 57 56 56 57 57 58 58 60 60 60 61 60 59 59 59 60 60 60 60 60 59 60 61 61 62 62 61 61 61 61 61 62 61 61 61 61 61 61 61 59 59 58 58 57 57 57 58 57 57 59 58 59 60 61 61 61
56 56 55 57 56 56 56 57 57 57 57 57 57 58 61 60 59 60 60 59 60 60 60 60 60 60 59 60 60 61 61 62 62 62 62 60 60 60 60 61 62 62 62 63 61 61 61 60 60 59 58 56 57 56 57 57 57 58 58 59 60 60 60
57 55 55 55 56 56 56 57 57 57 57 58 58 59 58 59 59 58 57 57 56 56 56 57 58 58 59 60 60 59 59 60 61 61 61 60 60 60 61 62 62 62 62 62 62 62 62 62 61 60 59 59 56 55 56 56 55 57 59 59 60 60 61
53 54 54 54 55 56 56 56 57 58 58 58 58 58 55 53 53 53 52 52 51 50 50 50 52 53 55 57 59 60 60 60 60 60 60 61 62 62 62 62 62 62 62 62 62 61 62 62 61 61 61 59 58 56 55 55 55 54 57 59 57 60 64
53 54 54 55 55 56 56 56 57 57 57 56 55 54 51 50 48 49 47 47 46 46 45 45 47 48 51 53 55 56 57 59 59 59 60 60 60 61 62 62 62 61 61 61 62 62 62 61 60 61 61 60 60 58 57 55 55 57 58 60 61 60 62
53 54 54 55 55 56 56 56 55 55 54 53 52 50 48 46 44 44 43 42 42 42 42 42 44 45 47 49 51 52 53 55 59 59 59 60 60 60 59 58 58 59 60 60 60 61 62 62 61 62 61 61 60 60 58 58 55 58 60 57 60 64 64
53 54 54 54 54 55 56 56 55 53 52 51 49 46 44 43 42 41 41 41 40 40 40 41 42 43 44 46 48 49 50 52 57 59 59 60 58 57 56 54 54 54 55 55 55 55 57 58 60 60 61 61 60 60 59 58 57 56 59 60 61 61 64
52 53 54 54 54 55 56 56 54 52 48 46 44 42 41 41 40 40 39 40 39 39 39 39 40 41 43 44 46 48 49 51 55 59 58 56 55 54 52 49 49 49 49 50 51 51 52 54 55 55 56 58 59 60 60 59 57 57 59 61 61 61 63
52 53 53 53 54 54 55 54 52 48 45 43 42 40 39 40 39 39 38 38 38 38 39 39 39 40 42 43 45 47 48 51 56 55 53 50 49 49 46 43 42 44 45 44 45 46 47 50 51 52 52 53 54 55 57 58 58 57 57 59 60 62 62
52 52 52 52 52 53 54 54 52 47 44 42 42 40 39 38 38 37 38 38 38 38 38 39 39 40 41 42 44 46 48 52 53 51 49 47 45 43 41 40 39 39 42 41 41 43 43 45 47 47 48 50 51 52 54 56 57 57 58 59 61 60 61
52 52 51 51 51 52 53 54 53 48 45 43 42 41 40 38 38 37 37 37 38 38 38 39 39 40 41 41 43 46 49 53 52 50 48 46 44 43 41 40 39 39 39 39 40 40 42 42 44 45 45 47 48 50 52 54 56 56 57 56 58 60 60
51 51 51 50 50 50 51 53 53 48 46 44 43 41 41 39 37 37 37 37 37 38 38 39 39 40 41 42 43 46 50 52 50 48 47 46 46 43 42 41 41 39 38 39 39 39 40 42 42 44 44 45 47 48 50 52 54 56 56 55 56 58 60
49 50 50 50 50 50 50 50 51 49 46 44 42 41 40 39 38 35 35 36 36 37 38 39 39 40 40 42 44 47 49 51 50 47 46 46 45 44 42 41 41 39 38 38 39 39 40 41 42 43 43 44 46 47 49 50 52 53 54 55 55 55 57
49 49 49 49 50 50 49 49 49 48 47 44 42 40 39 37 37 34 33 34 35 36 38 39 39 40 41 42 44 46 47 48 49 49 47 46 45 45 43 42 42 41 39 39 39 39 40 41 42 43 44 45 46 46 47 48 49 50 52 52 51 52 53
49 49 49 50 49 49 49 48 48 48 46 42 41 39 37 36 35 34 33 32 33 38 37 39 40 40 42 43 44 46 47 45 44 45 45 43 41 40 41 41 41 41 41 40 40 40 41 42 42 42 43 44 43 43 44 45 45 47 48 47 47 47 48
47 47 48 48 48 48 48 48 48 48 46 43 42 39 37 36 34 33 32 31 31 34 37 39 41 41 42 43 44 46 46 44 43 41 40 39 39 37 37 40 41 41 42 44 43 43 43 44 43 42 42 41 40 40 41 41 42 43 44 44 43 44 44
46 46 46 47 47 48 48 48 47 45 44 42 41 39 37 37 36 35 32 29 29 34 37 39 42 42 43 45 44 45 45 44 42 40 39 38 37 37 36 36 41 44 43 43 42 41 41 42 44 43 43 40 39 39 40 41 41 42 42 42 42 42 42
46 46 46 46 47 47 47 47 46 46 46 44 42 41 38 38 37 36 32 29 29 33 36 39 40 39 39 42 45 44 45 43 41 39 37 36 36 37 36 36 36 41 41 40 39 40 40 40 41 40 41 44 44 40 39 39 40 41 42 41 41 41 41
46 46 46 46 46 47 47 46 45 45 45 45 45 42 40 39 39 37 32 28 29 33 35 40 38 39 39 39 43 45 44 42 40 38 36 35 36 36 36 36 36 37 40 40 38 36 39 40 40 40 39 40 41 40 40 40 40 39 40 40 39 39 39
46 45 45 45 46 46 46 46 45 44 44 45 44 43 42 40 39 37 31 28 30 33 35 39 38 38 38 38 40 43 42 41 39 37 36 35 35 35 35 36 36 36 36 42 40 36 36 37 41 40 40 40 41 40 37 37 39 42 41 40 39 37 38
44 44 44 44 45 45 45 46 45 45 44 44 43 43 43 42 40 37 32 29 30 32 35 38 37 38 37 37 38 40 42 41 39 37 36 35 35 35 35 35 35 35 35 37 38 37 36 36 36 37 36 36 36 38 40 39 39 39 42 41 39 37 37
43 43 43 44 44 44 45 45 45 45 43 42 42 42 43 42 41 39 34 31 30 32 34 37 37 37 37 37 37 39 39 41 41 39 37 36 35 35 35 36 36 35 35 36 39 39 38 36 35 36 34 34 35 35 37 38 38 39 39 39 39 38 37
43 43 44 43 43 43 43 44 45 44 43 42 42 42 42 43 41 37 35 31 29 30 33 36 36 36 36 36 37 37 37 38 39 40 40 39 38 38 37 37 36 36 35 36 38 37 39 39 35 34 33 33 34 34 36 41 39 39 39 37 38 38 37
43 43 43 43 42 42 42 43 44 44 43 42 41 41 41 42 42 38 36 31 29 30 32 35 35 36 36 36 36 34 35 37 37 37 38 41 40 37 40 41 38 36 35 35 38 36 37 40 35 34 33 32 33 33 35 37 37 36 37 37 37 37 36
43 43 42 42 41 41 41 42 44 45 42 42 41 41 42 42 41 39 33 31 31 30 31 35 35 35 36 36 36 33 34 35 35 36 37 38 39 35 37 41 42 37 36 36 36 36 37 39 34 34 32 31 30 30 31 35 34 33 36 36 36 35 34
42 42 42 41 41 41 41 42 43 43 43 42 42 42 44 42 41 39 37 36 36 31 32 34 35 34 35 35 35 32 32 32 33 34 35 37 36 34 32 35 40 39 38 38 36 36 36 38 34 33 31 29 28 28 30 32 31 29 31 30 30 32 29
42 41 41 41 41 41 42 41 40 41 42 42 42 42 42 42 41 40 37 33 35 33 31 32 35 34 35 35 35 34 31 30 33 33 33 38 34 31 31 31 36 36 36 36 36 35 35 36 32 30 29 28 28 28 31 29 31 30 29 31 30 29 29
41 40 40 40 41 42 40 40 39 39 40 40 40 41 42 42 41 38 35 33 33 33 34 32 35 34 34 35 35 33 30 31 30 31 31 35 32 30 29 31 32 37 36 36 36 35 34 34 34 31 29 29 31 34 32 27 30 31 28 30 30 29 26
43 42 42 42 40 39 39 41 40 41 39 38 37 40 41 42 40 39 37 37 35 34 35 35 32 34 33 34 34 34 31 32 33 31 33 33 30 30 30 31 33 37 36 35 35 34 33 33 33 36 30 32 32 31 30 32 28 27 27 27 26 26 25
43 44 43 42 40 39 40 39 39 40 40 39 38 39 40 40 38 36 33 32 32 32 31 32 33 31 32 32 33 33 34 32 34 36 32 32 31 30 30 31 35 38 35 35 33 33 33 32 33 30 32 31 30 30 31 27 28 26 26 26 26 25 24
43 42 42 41 40 39 39 38 37 38 38 36 34 37 38 38 35 31 30 29 30 30 30 29 31 31 31 31 31 32 33 33 33 33 34 32 31 31 31 31 36 35 35 34 33 32 33 32 31 31 32 32 30 29 27 27 26 26 27 26 25 24 23

ECMWFFLT1_sfc_dewp_216.txt.gz
Dewpoint
53 53 55 55 56 58 56 56 57 57 58 59 59 59 60 61 62 61 60 60 60 61 63 61 62 62 63 63 63 64 63 63 62 61 60 60 60 60 61 61 61 61 61 60 59 57 56 55 56 59 60 61 61 63 64 64 64 64 64 64 64 64 65
55 56 56 56 56 56 55 56 57 57 58 58 59 59 60 60 62 61 60 60 60 61 61 61 61 61 61 61 61 62 62 62 62 62 61 60 61 61 61 61 61 60 60 60 60 60 57 56 56 57 57 60 60 60 61 61 61 62 63 63 62 62 64
53 54 54 54 54 55 55 56 56 57 57 58 58 59 60 61 61 61 60 60 60 61 62 60 60 61 61 61 61 61 62 61 63 63 62 62 62 62 62 61 60 60 59 59 59 59 59 59 56 57 57 57 57 59 60 61 61 60 61 62 62 62 63
53 53 53 53 54 54 55 55 56 56 57 57 58 59 59 60 60 60 60 60 61 61 61 61 60 61 61 61 61 61 61 61 61 62 61 62 62 62 62 61 60 60 59 58 58 58 58 57 56 57 57 57 57 57 60 61 61 61 61 62 62 63 63
53 53 53 53 53 54 54 55 56 57 57 57 57 58 57 57 57 57 57 57 58 58 58 60 60 61 61 62 62 62 61 62 62 62 61 61 61 61 61 61 61 61 61 60 60 60 58 58 57 57 57 57 58 58 58 60 60 60 60 61 61 61 62
53 53 53 53 54 54 55 55 56 56 56 54 54 54 54 53 54 54 53 54 55 55 56 57 58 59 61 62 61 61 62 61 62 61 61 61 61 61 61 62 62 61 61 62 62 60 59 60 59 57 58 59 58 59 59 60 58 60 60 60 61 61 61
53 54 53 54 54 54 55 56 56 55 54 53 52 51 51 49 50 50 50 50 49 50 52 53 55 57 59 60 60 61 61 62 62 62 62 61 62 61 62 61 61 61 61 61 62 61 59 58 57 57 57 58 59 58 59 59 59 59 59 60 60 61 61
54 53 54 56 55 55 55 54 54 54 53 53 51 48 48 47 46 47 48 47 46 47 48 51 52 55 56 58 60 60 61 61 60 60 59 58 57 57 58 58 57 56 57 58 59 59 61 60 60 59 58 56 57 58 58 58 58 58 57 59 60 62 62
55 54 54 55 55 55 54 53 52 52 51 51 50 46 45 45 46 44 45 45 45 46 47 48 50 53 55 57 59 59 59 58 56 55 56 55 54 53 54 55 54 54 54 55 56 57 58 59 60 60 60 58 56 55 57 57 58 58 58 59 60 62 62
52 52 53 54 54 53 53 51 50 49 49 48 46 45 43 43 44 45 44 44 44 45 46 47 49 51 54 57 58 58 56 55 54 53 53 52 52 52 51 51 51 51 52 52 53 54 55 56 57 58 59 58 58 56 53 55 57 58 58 61 59 61 62
52 52 53 54 54 52 50 49 48 46 46 46 44 44 42 42 43 44 43 43 44 45 45 46 48 51 54 56 56 55 53 52 50 50 49 48 47 48 46 45 47 48 48 50 51 51 52 54 55 55 56 56 58 56 56 54 56 59 59 61 60 60 62
52 53 54 54 53 50 48 46 45 45 45 44 42 42 42 42 42 42 43 43 44 44 45 46 49 51 54 55 54 51 49 48 47 45 45 44 44 43 43 43 43 44 45 47 47 48 49 51 53 54 54 55 54 55 55 56 54 58 59 58 60 61 61
53 54 54 52 48 46 44 43 42 42 43 43 41 41 41 41 41 42 42 43 43 44 45 47 48 51 53 51 48 47 45 45 44 43 43 43 43 42 42 42 42 43 44 45 45 46 47 48 49 51 52 52 53 54 55 56 56 55 59 59 59 58 57
53 54 53 50 47 45 45 44 43 43 41 41 41 40 40 41 41 42 42 43 42 44 45 47 48 52 51 49 48 46 44 43 43 43 43 42 42 42 41 41 41 42 43 44 44 45 46 46 48 49 50 51 52 53 54 55 55 55 57 58 58 55 53
54 53 51 49 48 45 44 44 44 42 41 41 40 39 39 40 41 41 42 42 43 44 45 46 48 51 48 47 46 46 45 43 42 42 42 41 41 42 42 41 41 42 43 43 44 44 44 45 46 46 47 49 50 51 53 53 55 55 54 53 53 52 51
54 53 51 49 46 45 45 44 44 42 41 41 42 40 38 39 40 41 42 42 43 44 45 47 49 49 47 45 45 45 44 43 42 42 42 41 41 41 41 41 41 42 43 43 43 43 44 44 44 44 45 46 47 48 50 52 53 53 52 51 49 48 48
53 53 51 48 47 46 45 44 43 41 40 39 38 40 39 37 38 40 41 42 43 44 45 47 49 48 46 45 45 44 43 42 42 42 42 42 41 41 41 41 41 41 42 42 42 42 42 42 43 43 43 44 45 46 47 49 49 50 48 47 47 45 45
52 52 51 48 47 46 45 44 43 39 38 36 36 37 38 39 38 39 40 41 42 43 44 46 47 48 47 45 43 42 41 41 41 41 42 42 43 42 41 41 41 41 41 42 42 42 41 42 41 42 42 43 44 45 45 46 46 46 45 44 44 43 43
51 52 51 49 48 46 45 43 42 40 37 35 35 35 36 38 39 38 39 41 42 43 44 45 44 44 43 42 41 40 40 39 39 39 40 41 41 42 42 42 41 41 41 41 41 42 42 41 41 41 41 42 42 44 44 44 44 44 43 42 41 40 40
51 51 51 49 47 45 44 42 40 39 39 36 35 35 34 35 38 38 39 41 42 43 44 44 44 43 42 40 39 38 38 38 38 38 38 38 39 41 42 42 42 41 41 41 41 42 42 41 41 41 42 42 42 42 42 42 42 41 41 40 39 38 37
49 50 49 47 46 45 43 41 40 40 38 36 35 34 34 34 36 38 39 40 42 44 43 43 43 42 41 40 40 39 38 38 37 37 38 37 38 39 41 42 42 42 41 41 42 42 43 41 41 41 41 42 41 41 41 41 40 39 39 38 37 36 36
50 50 48 47 45 43 42 41 39 39 39 39 39 35 34 34 36 37 38 40 40 42 43 44 44 41 39 39 39 38 38 38 38 37 37 37 37 37 38 42 42 42 42 43 43 42 43 43 41 41 41 41 41 40 40 39 38 38 37 37 36 36 35
48 48 47 46 44 43 40 40 40 39 39 39 37 35 33 34 35 37 38 39 40 41 42 44 45 43 42 39 38 38 38 38 38 38 38 38 37 37 37 38 43 43 42 42 41 41 40 41 42 41 41 41 41 40 39 38 37 37 37 35 35 35 34
47 47 47 46 45 41 40 41 40 40 40 38 36 34 32 32 34 36 37 38 39 40 41 42 42 39 39 40 38 38 38 38 37 37 37 37 38 38 37 37 39 43 41 40 39 40 39 39 39 40 39 40 41 40 40 38 37 37 35 34 35 34 33
47 47 47 45 43 42 41 41 41 40 39 38 37 32 31 31 33 35 37 37 38 40 40 42 39 39 39 38 39 39 38 38 38 37 37 37 37 38 38 38 38 39 41 39 38 36 38 39 38 38 38 38 37 37 37 39 37 35 35 33 32 33 33
46 46 46 45 44 43 42 42 42 41 41 41 35 32 31 32 32 34 36 37 38 38 39 40 39 39 38 38 38 39 38 39 39 38 38 37 37 37 37 38 38 37 37 41 39 36 35 35 37 37 37 37 37 37 35 35 36 36 34 33 32 31 31
46 46 46 45 45 43 43 42 42 43 43 41 36 33 32 32 33 34 35 35 37 37 38 39 38 39 39 38 38 39 39 39 39 39 39 39 38 37 37 37 36 37 37 39 39 37 35 34 34 33 33 33 33 34 35 35 34 34 33 32 31 30 31
46 46 46 45 45 44 43 43 43 44 42 39 36 35 33 32 32 34 33 34 35 36 37 38 37 38 39 39 39 40 41 40 39 39 38 39 39 38 37 37 37 36 37 37 39 37 34 33 32 32 32 32 32 33 33 33 33 32 31 31 31 30 31
46 45 45 45 44 44 43 43 43 43 42 41 41 38 36 34 32 31 32 32 33 34 36 37 37 37 38 38 39 40 39 38 37 37 37 37 38 39 37 36 36 36 36 36 36 36 35 33 31 30 30 31 31 32 32 33 34 34 32 30 30 30 30
45 45 45 44 43 43 43 43 43 44 41 41 39 38 37 35 35 32 33 32 32 33 35 36 36 37 37 37 38 37 38 37 36 35 35 35 36 40 39 36 36 35 35 35 35 34 34 31 30 29 29 30 30 30 31 32 33 34 34 33 32 31 32
44 45 44 44 43 43 43 43 43 44 41 40 39 39 37 36 36 37 34 33 33 32 34 36 36 36 36 37 38 36 35 35 35 35 34 34 35 37 40 39 38 35 35 33 33 33 33 32 29 29 29 29 29 29 30 32 30 31 34 31 31 30 30
44 44 44 44 43 43 42 42 43 43 41 41 40 40 39 35 37 37 36 36 35 32 33 35 36 36 36 36 37 34 34 34 34 34 34 33 34 34 36 38 37 35 34 34 33 33 32 30 30 30 30 29 27 28 29 32 31 28 29 28 27 28 27
43 43 43 43 43 43 43 43 42 41 41 41 40 39 38 37 33 32 33 32 35 32 32 34 36 36 36 36 36 35 34 34 35 34 34 32 33 34 35 36 35 34 34 33 33 33 32 32 30 30 30 30 30 28 30 31 30 28 27 26 27 26 26
43 43 43 43 43 44 43 42 42 41 41 41 39 38 37 35 33 32 33 34 34 34 33 32 35 35 36 36 36 34 33 33 32 32 33 33 32 32 33 34 34 34 33 33 32 32 32 32 31 31 31 30 31 31 31 29 29 27 26 26 26 26 25
43 43 43 43 43 43 43 43 42 41 41 41 38 37 36 35 32 34 36 36 35 33 35 34 33 34 35 35 35 36 36 37 35 33 33 32 32 33 34 34 34 34 33 32 32 32 32 32 31 30 29 31 31 31 29 28 28 26 25 24 23 23 24
43 43 42 43 42 42 42 42 42 42 41 40 38 36 34 33 34 34 32 31 31 32 32 34 33 33 33 35 35 35 35 36 35 37 33 33 33 34 36 35 35 34 33 32 32 32 31 31 31 30 31 29 28 30 27 26 26 25 24 24 24 23 23
42 42 43 42 42 41 41 41 41 41 41 40 39 36 34 34 34 32 30 28 30 32 30 28 33 32 32 33 34 34 34 34 35 35 35 33 33 34 34 34 34 33 32 32 32 31 31 31 29 31 31 29 27 26 26 25 24 24 25 24 24 22 22

ECMWFFLT1_sfc_dewp_222.txt.gz
Dewpoint
55 54 56 57 58 58 58 59 59 60 62 62 62 61 61 61 62 62 62 63 61 61 60 61 61 61 61 61 62 62 61 62 62 60 58 56 56 56 58 60 61 61 58 59 59 57 55 54 54 54 58 62 63 63 62 61 60 61 63 65 61 60 62
54 55 54 56 56 57 59 59 60 59 61 62 61 60 60 61 61 61 62 62 62 63 61 60 61 61 61 61 61 61 61 61 61 61 60 58 59 58 59 61 62 59 57 59 58 58 55 54 53 54 55 59 60 61 63 62 61 61 60 61 61 60 63
55 55 55 55 57 57 57 58 59 59 59 60 61 60 60 59 61 60 60 61 62 63 62 63 63 63 62 62 61 62 62 62 63 61 60 59 59 59 60 60 59 59 58 59 59 60 60 61 57 55 57 58 57 59 62 62 61 59 58 60 61 59 59
55 55 55 56 56 56 56 57 57 58 59 60 58 59 59 59 61 61 60 60 61 62 62 62 62 61 62 63 63 63 63 63 63 63 63 63 62 62 62 61 60 60 58 58 59 58 59 58 57 57 57 58 58 58 59 60 61 58 58 59 59 59 61
55 54 55 56 55 56 56 56 56 57 58 57 58 57 59 59 60 60 60 60 60 61 61 61 61 61 61 62 63 62 62 63 63 62 62 62 61 61 61 61 62 62 60 60 59 59 58 58 58 57 57 58 58 55 55 59 58 57 56 56 58 60 66
55 54 55 56 56 56 56 56 56 55 55 56 57 57 58 59 58 58 59 58 58 60 61 61 61 61 61 62 60 61 61 61 61 61 60 61 61 61 60 61 61 61 60 61 61 61 60 61 59 57 57 57 56 57 56 55 55 56 61 63 63 64 62
54 56 55 56 57 56 56 56 56 56 55 56 56 57 56 57 57 58 58 59 58 59 60 61 61 62 62 60 60 60 60 60 60 60 59 60 60 60 61 59 59 58 59 60 60 60 59 59 57 57 57 58 57 54 55 54 61 58 63 62 63 63 65
53 54 55 56 57 57 56 57 56 56 55 56 55 55 55 56 57 57 58 58 58 59 60 61 60 60 61 60 59 58 57 57 58 58 58 59 58 58 59 58 58 58 57 58 58 59 59 59 58 59 58 56 55 55 55 55 55 57 60 58 57 56 58
54 56 56 56 57 57 57 56 55 55 55 55 55 54 55 55 56 56 57 57 57 59 59 60 60 59 59 57 56 56 55 55 55 56 55 56 57 57 58 58 57 56 57 57 57 57 58 58 58 59 58 57 54 52 53 54 58 57 58 59 59 58 55
55 56 56 57 57 57 57 55 53 53 54 53 53 54 55 55 56 56 56 56 58 58 59 59 59 58 57 57 56 55 56 56 56 56 55 55 55 55 55 57 55 55 56 57 57 57 57 58 58 58 58 57 57 55 54 52 56 56 55 57 56 58 59
55 56 56 55 55 55 53 52 52 51 51 52 52 53 54 54 56 56 55 56 57 57 58 59 58 57 57 56 56 55 55 55 55 55 55 54 55 54 54 55 55 54 55 55 54 57 56 57 57 57 57 57 57 56 55 55 54 56 56 57 57 56 58
55 56 56 55 54 51 50 51 51 51 52 51 51 52 53 53 55 54 55 56 57 57 57 56 56 56 55 55 55 54 54 54 53 52 52 52 52 52 51 52 53 52 55 55 54 54 55 55 56 55 55 57 57 57 57 57 55 56 56 53 55 53 55
54 55 54 53 52 50 50 50 51 51 51 50 50 52 52 53 53 53 54 55 55 55 56 55 55 54 53 54 54 53 52 52 51 50 50 51 51 51 49 48 50 51 52 52 53 53 53 54 55 52 53 54 55 56 56 56 55 52 52 52 50 47 48
55 54 53 51 52 51 51 51 51 51 49 49 50 50 52 53 50 52 53 54 53 54 54 54 53 53 53 54 53 52 50 49 47 48 48 49 50 50 48 46 47 49 50 51 50 50 49 50 52 51 52 52 51 53 54 55 55 52 48 48 45 45 45
54 53 52 52 52 51 51 51 51 50 51 49 49 50 52 51 51 51 53 52 51 51 51 52 53 53 52 52 52 51 50 48 47 47 48 46 48 49 49 47 47 49 49 48 49 48 49 48 47 48 48 50 48 50 53 51 50 48 44 46 42 44 42
53 53 53 51 51 51 51 51 49 50 49 48 48 50 52 50 50 51 52 52 51 51 52 52 53 52 50 48 46 48 48 48 48 47 46 46 44 47 47 47 47 49 49 49 48 49 49 48 47 47 47 47 48 49 49 51 49 45 43 41 43 40 40
53 53 53 52 52 51 51 50 49 49 49 47 46 52 50 47 49 51 51 51 51 50 50 49 48 47 46 45 44 44 45 47 47 46 46 46 45 46 46 47 47 48 49 48 47 47 48 48 47 47 46 46 47 47 47 47 47 44 40 36 39 37 37
53 53 53 52 51 50 50 50 49 47 48 47 47 51 50 48 48 49 49 47 47 44 43 43 43 44 45 46 45 45 45 45 46 46 47 46 46 46 45 46 46 47 48 48 47 47 48 48 45 47 45 42 42 42 42 43 41 41 39 36 35 35 37
53 53 53 52 51 50 50 50 49 48 46 45 48 50 49 49 48 47 45 42 42 42 42 42 41 41 42 45 46 46 46 46 45 45 46 46 45 45 45 44 45 46 46 47 48 47 46 45 43 43 44 42 37 40 41 40 40 39 36 34 35 32 35
53 53 53 52 51 49 49 49 47 45 45 46 47 49 49 49 49 45 43 43 43 43 41 41 42 42 41 42 44 44 45 45 46 47 46 44 44 44 43 42 43 43 43 44 46 47 46 44 43 44 44 43 41 40 39 37 35 36 36 34 30 31 30
52 53 52 50 49 49 49 48 46 44 44 45 46 46 48 48 47 45 45 44 43 42 41 40 40 39 40 43 44 44 45 45 44 44 46 45 44 42 42 42 42 41 40 40 42 43 46 46 41 43 44 42 40 39 37 34 33 31 32 32 28 26 28
51 52 50 49 49 49 48 48 45 43 44 45 47 46 48 46 44 44 43 44 42 42 42 43 45 45 41 42 44 44 44 43 43 42 42 43 43 41 41 41 41 40 41 41 40 39 40 41 42 40 43 44 40 37 37 35 31 27 30 30 29 29 27
49 51 49 49 48 49 47 46 44 42 41 43 46 47 47 47 44 44 43 43 43 43 41 42 43 43 44 44 42 42 43 42 42 42 42 42 43 42 40 41 43 42 41 41 39 38 37 37 38 38 38 41 44 39 35 35 33 28 28 28 28 29 29
50 49 49 48 49 47 46 46 42 40 41 43 45 45 47 46 46 45 44 44 44 43 41 39 41 39 39 41 44 42 41 41 40 40 40 40 40 42 42 41 44 44 43 39 37 38 37 37 37 36 36 37 37 41 42 36 35 36 28 28 28 31 30
48 48 48 47 47 46 46 44 40 38 40 43 43 45 47 46 46 46 46 44 44 43 42 43 38 39 39 39 43 45 41 40 39 38 38 36 35 36 39 40 40 40 42 41 38 36 37 38 38 37 36 36 35 35 35 39 40 35 35 31 29 31 33
46 47 46 47 47 46 44 42 40 37 39 42 43 44 45 47 47 47 46 44 43 42 41 40 38 39 39 39 39 43 38 40 39 38 36 36 36 36 35 37 39 39 35 38 36 37 38 40 39 39 39 40 38 36 33 34 35 39 37 34 33 32 34
46 46 46 47 47 45 44 42 41 37 37 40 43 44 47 48 48 47 46 45 44 43 42 42 39 39 39 39 39 39 39 40 39 38 37 36 36 37 37 36 36 37 38 39 39 37 35 36 37 37 35 33 32 35 37 36 35 36 37 37 35 33 34
47 46 46 47 47 45 44 44 39 35 34 37 41 43 45 47 48 47 46 45 45 45 44 39 39 39 39 39 39 39 40 39 38 38 37 37 36 36 36 36 35 33 33 32 38 36 35 34 34 35 33 32 29 27 29 30 34 35 34 34 34 34 34
47 46 46 47 47 45 45 44 39 35 34 34 38 40 43 45 47 47 46 46 46 44 43 37 38 39 38 38 38 41 40 39 38 36 36 36 34 34 33 34 34 33 32 33 33 35 36 39 32 33 33 33 31 29 25 28 31 31 34 32 33 33 32
47 47 47 47 46 46 45 43 40 35 34 34 35 36 40 42 44 45 46 46 45 45 43 40 37 38 38 37 41 39 40 36 37 37 36 35 33 36 38 35 31 29 30 31 35 34 34 40 31 30 30 32 32 30 30 30 32 31 31 30 30 30 31
48 48 47 47 47 47 46 43 40 36 32 31 31 33 35 37 40 42 44 44 44 44 45 41 37 37 37 37 39 41 37 37 38 38 38 35 31 30 32 40 41 32 32 34 34 35 34 42 32 32 32 31 31 31 32 32 32 37 32 31 31 29 31
48 48 47 47 48 48 47 44 41 37 35 32 33 31 29 31 34 37 41 44 44 44 46 41 36 36 36 36 41 42 35 35 36 36 35 34 33 29 27 32 37 37 35 35 34 34 34 39 34 34 31 30 28 30 31 31 32 33 36 37 37 38 37
48 48 47 48 48 47 48 46 43 39 36 32 31 30 30 31 31 32 37 38 40 43 42 44 41 35 36 36 36 42 36 34 35 34 32 30 31 31 28 27 32 34 34 33 34 33 34 33 41 37 35 30 30 29 28 28 34 33 32 32 35 35 35
48 48 47 48 48 48 47 47 44 41 37 35 35 36 37 37 37 36 35 35 35 40 41 43 42 36 36 36 36 37 38 36 34 33 31 29 28 30 29 26 26 33 33 33 33 33 33 33 34 34 36 31 36 40 38 30 32 32 35 34 29 26 26
50 49 48 49 48 47 47 48 46 43 37 37 39 40 41 39 37 35 36 35 35 36 39 39 41 37 36 36 35 35 39 38 36 33 32 30 29 31 30 27 28 32 33 33 33 32 32 32 32 25 30 31 31 32 41 30 30 28 25 24 20 19 21
50 47 49 49 48 48 46 46 47 44 41 40 41 42 42 40 39 38 38 36 37 36 35 35 37 39 35 35 35 35 35 38 34 44 34 32 33 33 33 33 31 33 33 34 34 33 34 32 30 29 29 30 29 31 34 25 26 26 22 22 24 23 20
50 48 49 49 48 47 47 47 46 44 42 41 40 42 39 40 39 39 38 36 38 36 35 32 35 36 37 34 35 34 35 35 34 39 38 34 33 32 32 33 32 33 33 33 32 32 32 32 28 30 31 32 33 34 28 26 24 25 23 19 20 19 20

ECMWFFLT1_sfc_dewp_228.txt.gz
Dewpoint
59 60 62 62 62 63 63 62 62 64 62 60 60 57 58 59 60 60 60 62 61 61 62 62 62 63 63 63 63 63 62 62 62 61 61 60 58 58 60 60 61 60 59 60 59 56 56 54 54 58 59 61 63 62 61 62 62 65 64 65 65 65 64
60 61 61 58 61 60 61 62 62 60 62 61 59 59 58 59 60 60 60 60 61 61 62 61 62 63 62 62 62 62 61 62 62 62 62 62 60 60 61 60 60 60 60 60 59 58 58 56 55 56 57 60 61 61 63 64 64 65 64 64 64 64 64
58 59 59 60 62 61 61 61 62 62 62 62 61 59 60 58 59 59 59 59 61 61 62 61 62 62 61 61 62 62 62 62 62 62 62 62 62 61 60 61 60 59 58 59 58 58 58 58 56 56 56 55 56 60 63 63 63 63 63 64 63 63 64
56 60 59 63 60 63 59 60 61 61 61 61 62 61 59 58 60 59 60 59 60 62 62 61 62 61 61 62 62 62 61 61 61 62 61 61 61 61 60 60 59 59 58 58 57 58 58 57 56 56 57 56 55 59 59 60 60 60 61 62 62 62 62
56 56 60 58 57 56 58 59 61 60 60 60 60 61 60 58 60 61 61 61 61 62 61 61 62 62 61 61 61 61 60 61 61 61 60 60 60 60 60 61 61 61 60 59 60 59 59 58 57 56 56 56 57 56 59 61 61 61 57 58 59 58 61
58 55 59 58 58 60 60 59 59 59 59 59 59 58 59 59 60 60 60 61 61 62 61 61 61 61 61 61 60 59 59 58 59 60 59 59 59 59 59 60 60 59 59 60 60 60 59 59 57 56 57 57 56 58 60 59 60 58 55 55 56 56 56
59 60 60 58 59 60 60 59 58 58 58 58 57 59 59 59 58 58 60 59 60 61 61 62 61 60 61 60 59 58 58 59 58 58 58 58 58 59 59 59 59 59 59 59 59 59 58 57 56 56 56 58 58 56 58 56 56 57 55 54 54 55 55
61 61 62 59 59 59 59 58 58 59 57 57 57 59 58 58 58 59 59 59 61 62 61 61 60 60 60 60 58 59 59 59 58 58 58 58 57 57 58 58 59 59 59 59 60 58 58 58 58 57 56 54 55 57 57 56 54 54 55 53 52 52 54
60 59 59 59 60 60 58 57 57 57 57 58 58 58 58 58 60 59 58 59 61 62 62 60 60 60 60 60 59 58 57 58 58 57 57 57 57 57 57 56 58 57 56 59 58 59 58 59 58 59 58 56 54 53 55 55 55 53 53 53 52 51 51
59 58 60 58 58 59 61 60 59 56 57 58 56 58 57 60 61 58 58 60 61 61 60 59 59 59 59 59 58 56 57 57 57 55 56 56 56 56 56 55 56 55 55 57 56 57 57 58 58 58 58 57 57 54 53 54 53 55 51 51 51 51 49
58 58 59 57 56 57 60 56 57 57 55 56 55 56 57 58 57 58 58 58 59 60 58 59 60 58 58 58 57 56 56 56 54 54 54 55 54 56 55 53 54 54 54 56 54 56 56 56 55 57 57 58 57 56 55 53 52 53 53 49 49 50 50
58 58 58 56 58 55 53 56 56 56 55 57 56 57 57 57 56 59 58 58 59 58 59 59 59 58 57 57 56 55 54 55 54 54 54 54 54 54 53 52 53 53 53 54 55 55 56 55 55 52 55 56 55 55 55 57 51 49 51 48 48 49 49
54 55 57 57 57 54 52 53 53 55 56 55 57 56 56 55 53 58 57 57 56 59 58 57 56 55 56 55 54 53 53 52 51 52 52 53 53 52 51 50 51 52 53 52 52 54 54 54 54 51 51 53 53 54 54 53 46 45 49 47 46 43 48
56 55 55 54 54 54 55 55 56 54 54 54 56 56 56 51 51 54 55 53 54 57 55 55 56 55 53 52 52 52 51 50 49 50 52 51 52 51 51 49 49 50 52 52 52 51 51 50 51 51 50 51 50 52 48 53 46 46 48 47 43 42 40
56 55 55 56 54 53 56 57 54 54 54 55 55 53 51 55 55 55 53 50 53 55 52 51 52 53 51 51 52 52 51 50 49 49 50 48 50 52 51 49 49 50 51 51 50 49 49 49 46 47 47 48 47 48 46 50 46 44 43 45 44 41 37
54 54 55 55 56 53 53 55 53 55 49 57 54 53 54 53 54 55 52 54 53 50 49 49 51 50 50 49 48 50 51 50 48 48 47 47 46 48 49 49 49 50 51 49 49 48 49 48 47 45 45 46 46 46 45 46 44 41 40 39 41 38 40
53 53 54 55 55 54 54 55 52 54 49 54 51 53 56 51 54 54 53 48 47 49 47 48 48 47 48 47 46 46 47 48 47 46 45 44 44 43 43 44 44 46 49 48 47 47 47 47 45 46 46 45 45 44 44 44 45 40 38 38 37 35 39
53 53 53 54 53 53 54 55 55 47 52 53 55 50 50 49 53 52 52 45 45 44 44 44 45 46 48 49 48 49 47 47 46 44 44 42 41 38 38 37 38 40 43 46 47 47 47 47 44 44 45 42 43 45 45 44 40 41 41 38 37 37 37
53 53 53 54 53 54 54 53 51 53 54 51 55 53 57 54 47 45 43 41 42 41 42 45 44 44 44 47 49 49 49 47 44 42 41 38 36 35 34 32 33 35 37 40 42 44 47 47 46 45 45 44 39 44 45 41 43 41 36 36 39 38 36
52 53 54 53 54 52 51 52 51 47 52 52 51 53 53 54 49 45 43 43 42 45 44 46 47 47 44 45 47 47 48 46 44 42 38 35 32 32 30 31 32 32 33 36 38 41 44 46 46 46 47 47 43 43 42 43 39 38 39 37 34 35 36
52 53 53 52 51 52 51 51 50 50 51 53 52 48 49 50 53 46 44 44 45 47 47 45 45 45 46 47 50 47 47 45 41 40 37 33 31 28 30 32 32 32 32 34 35 37 40 43 43 42 43 46 46 42 40 39 39 38 39 37 36 35 34
52 52 51 50 51 51 51 50 47 49 52 55 52 48 49 47 45 43 42 43 41 43 45 44 43 44 44 46 47 46 44 42 40 37 34 31 29 27 28 33 36 37 40 40 40 40 41 41 39 38 39 42 45 44 41 38 37 37 36 37 37 37 34
51 51 50 49 49 50 50 49 49 47 48 49 54 51 53 51 46 45 42 40 40 43 43 43 45 43 44 45 50 45 47 45 42 39 37 37 36 34 33 36 41 43 44 44 41 40 38 38 40 38 37 37 39 40 41 40 37 36 35 34 35 36 34
51 50 49 49 50 49 47 48 47 46 48 48 52 54 53 52 51 46 42 41 41 42 42 41 41 39 39 41 46 49 46 47 45 44 41 39 37 39 40 38 42 41 41 42 43 40 39 38 37 36 37 39 40 38 37 38 39 37 36 33 33 33 33
49 48 48 47 47 48 48 45 44 46 48 49 51 53 54 51 48 48 46 41 41 40 41 44 38 39 39 38 41 48 46 46 44 43 42 42 42 42 43 44 44 44 43 43 41 39 41 41 39 37 36 36 35 35 37 38 37 36 36 33 31 31 32
49 48 47 47 48 48 47 44 43 45 46 48 50 51 52 51 50 49 45 41 40 39 40 42 38 39 39 38 38 45 44 45 45 44 41 40 40 40 39 40 42 45 37 43 44 43 44 42 41 41 38 36 36 35 31 34 35 38 36 33 31 29 31
48 48 47 48 48 47 46 44 45 46 47 48 49 50 51 51 50 49 46 43 42 40 40 43 38 38 39 38 37 41 40 44 44 43 42 43 43 42 42 42 44 43 41 39 36 38 41 40 35 31 31 28 26 29 33 33 35 35 36 34 31 30 31
47 47 47 47 48 47 46 46 44 45 46 45 47 49 49 50 50 49 47 45 42 42 42 40 38 38 38 38 37 42 45 44 42 43 43 43 42 41 39 38 38 39 40 38 39 40 38 42 39 35 32 28 25 25 26 25 29 31 31 33 32 32 34
48 47 47 47 47 46 47 45 44 45 45 46 48 48 50 50 50 49 48 46 44 41 44 35 37 37 38 37 37 47 45 43 42 42 41 44 43 44 44 41 37 38 37 36 38 36 37 41 44 35 34 31 30 28 28 30 32 34 35 34 35 36 35
48 47 47 47 46 46 47 46 44 43 43 45 46 47 48 50 49 49 48 47 45 41 40 40 38 37 37 37 41 46 46 40 41 43 42 43 42 41 43 45 36 35 36 35 37 34 34 40 39 37 39 38 36 33 32 33 33 33 33 33 33 32 32
47 47 47 47 46 48 48 46 44 43 42 43 44 45 47 48 47 48 48 48 45 42 41 41 38 38 37 37 42 43 46 41 41 40 41 41 40 38 41 46 40 36 35 34 34 33 34 39 42 41 40 40 38 39 36 31 29 37 36 34 33 32 32
47 47 47 48 48 48 48 46 44 43 43 43 44 45 45 44 45 48 47 48 47 43 43 41 38 37 37 37 41 45 44 42 40 39 37 36 38 35 31 37 40 38 35 35 33 33 33 37 40 40 40 37 33 34 35 37 40 39 39 40 40 40 41
49 48 47 49 49 49 48 47 44 42 42 40 40 41 42 42 44 45 47 48 47 46 45 42 42 37 37 37 37 44 43 45 40 39 34 30 32 33 32 32 36 34 33 33 33 32 32 32 38 39 39 41 35 35 40 37 38 40 38 39 39 41 38
50 49 49 49 49 50 48 47 45 42 41 39 39 41 42 44 44 45 45 48 47 48 45 43 43 37 37 37 38 39 44 44 44 39 36 31 29 31 30 28 31 35 33 33 33 32 32 32 35 37 36 36 35 39 37 39 41 37 41 41 38 37 40
51 51 49 50 50 49 49 47 44 42 39 40 40 42 41 43 42 44 45 48 46 48 48 45 42 38 37 38 37 36 42 44 39 40 44 32 29 29 30 30 30 34 33 33 33 33 33 33 33 38 34 30 32 32 34 36 34 33 39 34 32 30 31
52 49 51 50 50 49 49 47 45 43 40 42 40 41 40 41 41 42 44 43 41 44 47 46 42 41 38 37 37 36 35 37 35 44 45 38 34 35 35 33 33 35 33 33 33 33 33 33 33 32 33 33 32 32 35 34 34 36 37 34 35 32 32
51 50 51 51 50 50 48 47 45 43 40 41 39 39 38 40 39 40 39 38 39 40 46 46 42 41 40 37 36 35 35 35 35 38 42 44 41 35 32 29 32 33 32 32 32 32 31 32 31 29 31 32 31 33 32 33 31 39 38 34 36 31 29

ECMWFFLT1_sfc_dewp_234.txt.gz
Dewpoint
52 51 56 56 57 58 57 58 58 58 58 59 59 59 59 60 60 59 59 59 59 60 60 58 58 58 59 60 60 59 59 60 58 57 56 56 55 56 59 58 58 59 58 57 55 53 53 53 56 59 60 60 61 61 62 63 62 61 60 59 58 58 57
54 55 57 60 58 58 57 57 58 57 57 58 58 58 58 59 60 59 58 59 59 59 60 59 58 58 58 58 58 58 58 58 60 59 56 56 56 56 56 56 57 56 56 57 57 56 53 53 53 55 56 58 59 60 61 62 62 61 60 59 59 58 57
55 55 56 56 56 56 56 56 57 57 57 57 57 57 57 58 58 59 59 58 58 60 60 58 57 57 57 57 57 57 57 57 58 58 57 57 57 57 57 56 55 54 55 55 55 55 55 53 53 53 54 55 56 58 60 62 61 61 60 60 58 56 55
53 54 55 55 55 56 56 56 56 56 56 56 56 56 56 57 57 60 58 59 59 60 59 58 57 57 57 56 57 56 57 57 57 57 57 57 57 57 57 56 55 55 54 53 54 54 53 52 53 53 55 56 56 56 57 59 61 61 60 59 57 55 54
54 55 54 54 55 56 56 56 55 55 55 55 55 55 55 55 57 56 59 58 59 57 57 57 57 56 56 56 56 55 55 56 56 57 55 55 55 56 56 56 56 55 56 55 55 55 55 54 54 54 55 56 56 57 58 55 55 56 59 58 57 55 54
54 54 54 55 54 55 55 55 54 53 53 53 53 53 54 55 56 56 56 56 57 58 58 57 56 56 55 55 55 55 55 55 55 55 54 53 54 54 54 55 56 56 56 56 56 55 55 55 54 54 54 55 54 56 57 59 52 51 51 57 58 57 55
53 55 54 55 55 54 54 54 54 53 53 52 52 52 53 56 56 57 57 58 58 57 58 57 56 56 55 55 54 55 54 54 55 54 53 53 52 53 54 53 53 53 54 55 55 55 54 54 53 54 54 54 55 56 57 55 55 51 48 51 57 57 56
54 55 54 55 55 54 54 53 53 53 52 52 52 53 55 55 56 56 57 57 57 57 57 55 56 55 54 54 55 54 54 53 53 53 52 52 52 52 52 52 52 53 53 54 54 55 55 54 54 54 54 53 53 54 52 52 50 50 47 47 51 55 55
57 55 55 55 54 54 53 53 53 52 52 52 52 53 53 55 55 56 56 56 57 56 56 55 55 54 53 52 52 52 51 55 52 51 51 51 51 51 51 51 51 51 52 52 54 53 52 52 54 55 54 53 51 50 49 47 47 45 49 48 49 53 55
55 54 53 53 53 54 53 53 52 52 52 51 52 54 53 54 54 55 55 55 55 56 55 54 54 53 52 51 51 51 50 50 52 50 51 51 50 50 50 50 50 50 50 51 51 52 51 52 54 54 54 53 52 49 48 46 46 44 43 47 46 49 55
55 54 52 52 53 53 52 52 51 51 50 52 54 53 53 54 55 58 54 54 55 55 54 53 52 51 51 51 50 50 51 50 50 50 52 50 50 50 51 49 49 49 50 49 50 51 49 49 51 52 52 53 54 52 49 44 43 46 43 43 45 47 52
55 54 54 54 52 52 52 51 51 50 50 53 52 51 52 53 53 53 53 54 54 53 52 51 51 50 50 49 50 49 50 50 49 49 50 51 51 50 49 49 48 47 48 48 48 48 48 47 47 48 48 51 53 49 45 44 42 42 46 39 41 44 50
55 53 53 52 51 51 52 52 51 49 49 54 50 51 51 51 52 53 53 52 52 51 51 50 49 49 49 48 48 48 48 48 47 47 46 47 48 48 48 48 48 47 47 46 46 46 45 46 47 46 47 50 50 47 44 41 37 37 41 39 39 40 48
53 52 50 49 49 50 51 52 50 49 51 47 48 49 50 50 51 52 50 50 48 48 49 49 48 48 48 48 48 47 46 45 44 44 45 43 44 45 46 46 47 47 47 46 45 45 45 44 43 44 46 46 44 42 38 36 35 36 37 40 39 39 41
52 50 50 50 50 50 50 50 50 50 47 47 48 49 50 50 50 51 49 48 47 46 47 47 47 48 47 47 47 46 44 42 40 40 40 40 41 43 43 43 44 46 46 46 46 45 45 44 42 41 43 45 44 43 40 38 38 35 34 36 37 38 39
51 50 49 49 49 49 49 50 51 48 48 48 50 49 49 48 49 49 48 47 45 45 46 47 47 47 46 44 43 42 41 39 38 38 37 37 38 40 40 41 41 44 45 44 44 45 45 44 44 41 40 41 40 39 39 36 34 34 33 35 37 37 38
50 50 49 49 48 48 49 50 51 48 48 47 46 47 49 48 49 49 48 47 45 45 45 46 47 47 45 42 39 37 36 35 35 35 35 34 35 36 37 38 39 42 43 42 42 43 43 43 43 43 41 40 38 38 38 36 34 33 34 34 34 36 38
49 49 49 49 49 49 49 49 49 46 48 47 47 47 46 48 48 45 45 45 45 45 45 45 46 45 44 41 38 35 32 31 31 31 32 34 38 33 36 36 37 40 41 41 41 41 41 41 42 41 40 39 38 38 38 36 35 34 33 32 33 33 36
49 49 49 49 49 49 50 49 48 49 48 48 48 49 48 47 45 44 45 45 45 45 45 46 45 43 40 38 35 33 32 31 30 29 29 29 30 33 33 34 36 38 39 40 40 40 40 40 40 39 38 37 36 35 34 33 33 32 32 32 31 31 32
50 49 50 49 48 49 50 47 47 48 49 48 47 46 45 45 46 46 45 44 44 44 44 44 45 44 39 35 32 30 29 29 30 30 29 29 30 31 33 35 36 37 37 38 38 38 38 39 40 39 40 37 36 35 34 33 32 31 30 29 29 31 31
50 50 50 49 49 49 49 48 47 48 49 46 47 46 45 46 46 45 44 44 44 44 43 43 44 43 39 34 31 29 29 30 29 29 30 30 31 31 33 35 36 38 38 38 38 37 37 37 37 37 38 36 35 34 34 34 31 28 27 28 28 28 30
51 51 51 49 49 49 48 48 46 46 47 47 50 47 44 44 43 43 43 43 42 43 43 43 44 42 38 33 29 28 28 27 28 29 30 31 32 33 33 35 36 38 42 43 43 43 43 41 36 35 36 36 35 34 33 33 33 29 28 25 25 27 28
51 51 50 49 49 49 46 45 45 45 46 47 48 46 44 43 43 42 42 41 41 42 42 43 48 47 43 33 28 27 28 28 29 30 33 35 37 38 38 38 41 41 41 40 40 40 41 42 42 39 35 35 34 33 32 32 31 30 28 26 26 24 26
51 50 50 49 49 48 44 45 45 45 46 46 46 47 42 41 41 41 41 40 40 40 41 43 42 42 40 38 30 27 27 30 31 33 34 35 36 39 39 38 37 39 40 39 38 38 38 38 38 40 41 43 40 33 31 31 31 30 29 27 28 25 26
51 50 49 49 49 46 44 45 44 44 45 45 46 45 41 41 41 40 40 39 38 39 40 43 39 41 40 37 38 31 30 32 34 34 35 36 38 38 38 39 38 38 35 35 31 33 37 38 38 37 37 38 38 38 37 34 31 26 26 24 25 26 27
50 50 49 48 48 45 44 44 43 44 44 45 46 42 41 41 40 39 38 37 38 39 37 40 38 40 40 39 38 36 33 34 36 37 38 39 40 39 39 40 39 40 39 36 37 25 25 30 36 37 38 39 39 36 34 34 35 32 25 24 25 26 26
50 49 49 48 48 45 44 42 43 44 45 45 45 43 42 40 38 37 36 37 37 36 37 41 38 39 40 41 39 38 37 38 39 39 39 39 39 38 38 37 36 36 35 36 29 22 21 19 18 17 18 21 27 34 38 35 35 35 34 27 26 27 28
49 49 49 48 48 45 43 42 43 45 45 45 45 44 41 39 38 39 37 35 35 36 39 39 37 38 39 40 39 41 41 41 40 38 38 37 38 39 37 35 34 34 35 35 34 25 23 22 22 22 19 19 21 22 24 25 27 29 31 29 28 29 30
50 49 48 47 48 45 43 42 43 44 45 44 44 45 43 40 40 38 36 34 35 34 37 35 37 38 39 39 39 41 39 40 40 40 39 39 38 38 36 33 32 32 33 35 39 35 31 26 22 22 22 22 24 27 32 36 35 36 35 30 30 31 31
50 49 48 47 47 46 43 42 43 45 44 43 44 45 44 42 41 37 36 34 32 32 33 37 37 38 39 39 39 39 40 40 39 39 38 39 38 37 36 32 31 31 33 34 37 36 33 33 23 22 23 24 26 25 26 28 34 34 35 35 35 35 35
50 49 48 47 47 46 44 43 43 45 43 42 43 45 45 44 41 39 36 33 30 30 31 36 37 38 39 40 41 39 39 38 38 38 37 37 38 36 39 40 38 30 30 33 36 37 36 34 26 26 26 26 25 22 21 27 33 36 38 33 33 34 35
50 49 48 47 47 47 45 43 43 44 42 42 43 44 47 44 42 41 38 33 39 31 30 36 37 37 39 40 42 39 39 37 36 34 34 32 32 36 38 40 40 36 35 37 37 38 37 37 32 31 32 33 32 29 29 31 28 28 30 31 33 36 36
50 49 48 47 47 47 46 43 42 43 41 42 43 44 47 45 43 42 41 39 39 31 29 33 38 37 38 40 41 41 39 36 36 33 30 28 28 26 30 33 38 36 34 34 36 37 38 38 35 35 33 29 29 28 31 34 36 32 35 39 35 37 36
50 49 48 47 47 47 45 43 42 42 41 42 43 44 45 45 44 43 42 41 39 31 31 31 39 37 37 39 41 41 38 36 35 33 31 33 25 24 24 27 30 34 33 34 35 35 36 37 38 35 30 30 32 35 36 30 37 40 35 40 39 34 34
50 50 48 48 47 47 45 43 42 41 41 41 42 43 44 44 44 44 43 42 40 33 36 39 35 37 37 38 39 40 39 38 36 33 32 28 24 23 20 23 26 34 33 34 34 34 34 35 35 38 30 31 32 34 36 37 34 34 34 32 32 32 31
49 49 49 48 47 46 44 42 41 41 40 41 41 42 43 43 43 43 43 42 42 36 35 40 38 37 37 37 38 39 39 38 36 38 31 29 24 23 22 23 29 35 33 33 33 34 33 33 32 27 32 32 32 33 36 34 34 31 29 29 29 29 29
49 49 48 48 47 46 44 42 41 41 43 40 40 41 42 43 43 43 43 43 42 40 38 37 38 38 38 37 38 38 36 36 37 35 33 29 27 26 24 22 31 34 32 33 33 33 31 30 27 32 32 32 33 34 33 33 33 34 32 29 29 28 27

ECMWFFLT1_sfc_dewp_240.txt.gz
Dewpoint
50 51 52 55 56 58 57 56 56 56 57 57 57 57 58 59 62 59 58 59 59 60 61 58 57 58 58 58 59 58 58 59 58 57 57 57 57 57 59 58 58 58 57 57 58 57 56 55 56 59 60 59 58 57 56 55 55 54 54 54 52 52 53
52 54 58 59 57 57 56 55 55 55 56 56 56 56 56 58 61 60 58 58 59 60 61 58 57 57 57 57 57 57 57 57 58 58 57 57 56 57 58 57 56 56 57 57 56 56 57 56 56 56 56 57 57 57 56 55 54 55 54 54 52 51 52
56 54 55 55 55 55 55 55 55 55 55 55 55 55 56 56 58 60 58 58 58 60 60 57 57 56 56 56 56 56 56 56 56 57 57 56 57 57 56 56 55 55 56 56 56 56 56 57 56 55 56 55 54 56 57 56 54 54 53 54 52 51 50
53 54 54 54 55 55 55 55 54 54 54 54 54 54 55 55 58 60 58 57 60 59 58 57 56 56 56 56 56 56 55 55 55 55 55 56 56 56 56 56 57 56 55 55 55 54 54 55 56 56 55 55 54 55 56 55 55 54 52 53 52 51 50
54 54 54 54 55 55 54 55 54 53 53 53 53 53 54 54 58 56 57 57 59 57 57 56 56 56 56 55 55 55 54 54 55 55 54 54 55 55 55 55 56 56 56 56 56 55 55 56 56 55 55 55 55 55 56 56 55 53 52 51 51 50 49
54 54 54 54 54 55 54 54 53 53 52 52 52 53 53 54 57 56 57 57 57 57 57 56 56 56 55 55 54 53 53 53 53 53 53 53 53 54 54 54 55 55 55 55 56 56 56 56 57 55 56 57 54 55 56 56 53 52 51 49 48 47 45
53 53 53 54 54 55 54 54 53 53 53 52 52 52 53 56 56 56 56 56 56 56 57 57 55 55 55 55 53 53 53 53 53 52 52 53 53 52 53 53 53 53 53 54 55 56 56 57 56 55 54 55 55 53 53 53 54 50 49 49 48 48 45
54 54 54 55 55 54 54 53 52 52 52 52 52 53 56 55 56 56 58 56 56 55 55 54 54 53 53 53 53 53 53 53 52 53 52 52 52 51 52 52 53 52 52 53 54 56 58 57 57 56 55 51 51 51 50 51 51 49 49 49 47 45 45
58 55 56 56 54 54 54 53 53 52 52 51 51 55 53 55 55 55 55 55 55 54 54 53 53 53 53 52 51 51 51 53 51 51 51 51 51 51 51 51 51 50 51 51 52 53 55 58 57 57 56 53 50 48 48 49 49 49 50 46 46 47 45
55 54 55 54 54 54 53 53 53 52 53 53 52 55 54 54 56 55 55 54 53 53 52 52 52 52 51 51 51 50 50 51 51 51 51 50 50 51 50 50 50 49 49 50 50 51 54 57 58 57 57 54 52 48 47 46 46 49 50 48 46 46 46
54 54 54 53 53 53 53 53 53 52 52 52 55 55 54 54 54 56 54 53 53 52 51 51 51 51 51 51 50 50 49 49 49 48 49 49 49 50 49 48 48 48 48 48 48 49 51 54 57 57 57 55 53 50 49 46 43 44 49 49 50 46 47
53 53 53 54 53 53 52 52 51 51 51 54 54 51 53 53 53 53 52 52 52 51 50 50 50 50 49 49 50 48 48 48 47 46 47 48 48 48 48 48 48 47 48 47 47 48 48 50 54 56 56 55 55 52 49 46 44 42 44 48 47 48 47
54 53 53 53 53 52 52 52 51 51 50 54 51 51 52 53 53 51 51 51 50 49 49 49 49 48 48 47 47 46 45 46 45 45 45 45 46 47 47 46 46 46 47 46 47 47 47 48 51 54 55 53 51 50 50 47 44 42 42 47 47 47 47
53 53 53 52 52 52 52 53 51 50 52 48 49 50 51 51 52 51 51 51 49 49 48 48 48 47 47 45 45 44 43 43 43 43 45 44 44 45 46 44 44 45 46 46 46 46 46 47 50 52 52 50 48 47 46 45 44 44 44 45 47 46 46
54 53 52 52 52 51 51 52 51 52 48 48 50 50 51 52 50 49 48 47 47 47 48 47 47 46 44 43 42 42 42 42 41 41 41 41 42 44 44 44 43 44 45 44 44 44 45 45 46 47 47 47 44 45 46 45 46 46 44 44 44 44 44
53 52 51 51 51 51 51 51 52 49 48 47 51 50 50 50 49 48 47 47 47 47 47 45 45 43 42 40 38 39 39 39 40 40 39 39 39 42 43 43 42 43 44 43 43 44 45 44 44 43 43 43 44 43 45 46 45 44 43 40 41 42 42
52 52 51 50 50 51 51 50 53 48 48 48 48 51 49 49 47 47 47 47 47 47 45 44 42 41 39 38 37 35 35 36 37 37 39 40 39 40 41 41 41 42 43 42 42 42 43 43 43 42 41 42 43 43 44 44 45 43 42 40 39 39 40
51 50 50 50 50 50 50 50 52 48 48 47 47 49 51 48 47 46 46 46 46 46 45 42 39 37 37 37 36 36 35 34 35 35 36 38 42 39 40 40 40 41 42 42 42 41 41 41 40 41 41 40 40 41 42 43 43 43 41 40 38 39 40
50 50 50 49 49 49 50 50 50 50 48 48 47 47 48 48 47 46 45 46 46 45 43 40 38 36 35 35 35 35 35 35 35 35 36 37 38 40 40 40 39 40 40 41 41 41 41 40 39 39 39 39 37 39 40 40 41 41 40 39 39 37 39
51 50 50 49 49 49 49 49 49 48 50 47 46 46 46 47 48 46 45 46 45 44 41 38 36 34 33 33 33 33 34 35 35 37 37 38 39 40 41 41 42 40 40 40 40 40 40 41 40 40 40 39 38 39 39 39 38 39 39 38 37 38 38
50 50 50 49 49 49 49 48 48 49 50 47 46 45 46 46 47 45 45 45 45 45 40 37 34 33 34 35 35 34 35 36 36 37 38 38 40 41 42 42 43 44 44 42 40 40 40 40 40 39 39 38 38 38 37 38 38 37 37 37 37 36 36
51 50 50 49 49 49 48 48 47 48 49 48 48 46 46 45 44 44 44 45 45 44 40 38 35 33 32 32 33 33 33 35 37 38 38 38 38 38 40 43 44 45 45 45 45 45 44 41 39 39 38 37 38 37 36 36 36 36 36 36 36 37 38
50 50 49 48 48 48 48 47 47 48 48 47 47 46 45 45 44 44 43 43 44 43 42 40 41 39 38 33 32 33 36 37 37 38 38 36 34 34 34 36 44 45 45 44 44 43 42 43 41 40 38 37 36 35 35 35 35 36 37 36 36 38 37
50 50 49 48 48 48 48 47 47 47 47 46 46 47 44 44 43 43 43 43 43 44 43 42 43 37 37 37 33 35 36 37 38 38 36 34 33 36 35 35 37 40 40 42 42 41 40 40 40 41 41 40 37 36 35 34 34 36 37 35 34 36 37
50 50 49 48 48 48 48 47 46 46 47 46 46 46 44 43 43 43 43 42 43 44 43 46 37 36 36 36 37 37 37 38 38 36 35 34 37 39 38 38 38 39 41 39 37 40 41 40 39 39 38 37 37 38 38 38 36 33 35 35 35 35 36
50 49 49 48 48 48 47 46 46 46 46 46 46 44 43 43 42 42 42 41 41 43 44 44 36 36 36 36 36 38 37 38 39 37 37 39 40 40 39 38 34 32 31 34 31 27 31 35 37 37 38 39 38 37 35 36 37 37 36 36 36 35 35
50 49 49 48 48 48 47 46 46 46 46 47 45 44 43 43 42 41 41 41 42 42 42 44 36 36 35 35 35 36 36 38 38 38 39 41 41 40 38 33 29 28 26 28 28 25 26 28 29 30 31 32 33 36 37 37 37 37 37 37 36 35 35
50 50 49 49 48 47 47 47 46 45 46 46 44 43 42 42 42 43 42 41 41 40 40 42 37 36 35 35 35 36 38 39 39 39 40 41 41 40 37 32 29 27 28 30 32 27 27 28 31 32 33 33 35 36 37 36 36 37 36 36 36 36 36
50 50 49 49 48 47 46 46 46 45 46 46 45 44 43 42 42 41 41 40 41 39 40 39 38 36 35 35 36 39 39 39 39 40 40 40 40 39 37 33 30 29 31 33 34 33 32 32 31 32 32 32 33 34 37 39 38 38 38 36 37 36 36
50 50 50 49 48 48 47 46 46 46 45 45 44 43 42 42 42 41 40 40 40 39 38 39 38 37 35 35 37 38 40 40 40 39 40 40 40 39 38 33 31 30 32 33 34 33 33 34 31 32 31 32 32 33 33 33 37 37 37 37 37 37 38
50 50 50 49 48 48 47 46 45 46 45 44 44 43 42 42 41 41 40 39 39 39 38 39 38 38 35 35 40 38 40 40 40 41 39 39 39 38 38 37 36 32 33 35 34 33 33 36 31 32 32 33 32 32 31 33 35 36 38 38 38 36 36
51 50 50 49 49 49 47 46 45 47 45 45 45 44 45 41 40 39 39 39 43 40 38 39 38 38 37 36 40 39 40 40 39 39 39 39 39 37 37 40 38 36 35 38 34 33 34 36 33 33 33 33 33 32 34 33 34 36 37 37 38 39 37
51 51 50 50 50 49 49 47 46 45 45 44 44 44 45 42 40 39 38 39 41 41 38 38 40 38 39 37 38 40 40 39 40 38 38 38 38 37 36 39 44 38 35 35 34 33 34 35 34 34 34 34 34 34 35 33 36 36 42 38 36 37 38
51 51 51 50 51 50 48 49 48 47 47 45 45 45 45 43 41 40 38 38 38 41 38 37 40 37 39 38 37 39 39 39 39 38 37 40 38 37 36 39 40 40 36 36 36 33 34 35 35 35 35 35 36 39 37 34 42 41 40 40 39 39 37
52 52 51 51 50 49 49 49 48 47 47 45 44 44 45 44 42 41 39 38 36 39 41 42 38 38 38 38 37 38 38 39 39 38 38 38 36 36 36 37 37 39 36 36 36 34 34 35 35 39 37 34 34 36 39 41 42 40 39 36 36 35 35
52 52 51 51 50 50 50 49 47 47 46 44 43 44 44 44 43 42 41 40 37 37 38 43 40 39 38 38 38 38 37 38 36 41 37 37 37 36 35 36 37 37 35 35 36 35 34 35 37 38 35 34 36 36 40 40 40 37 36 35 35 34 34
52 52 51 51 50 50 49 49 48 47 46 46 45 44 44 44 43 42 41 41 40 39 36 38 40 39 39 38 38 38 37 36 36 38 38 37 36 35 33 32 34 35 34 35 36 37 35 36 37 36 34 34 35 38 39 39 36 36 35 33 34 33 33

ECMWFFLT1_sfc_dewp_246.txt.gz
Dewpoint
57 59 60 60 60 60 59 60 59 58 57 56 56 53 54 55 57 58 58 59 57 57 56 57 58 58 58 59 60 59 59 59 60 58 58 57 56 60 61 61 61 61 59 61 58 56 57 54 56 56 56 56 56 56 55 54 54 55 56 56 56 55 56
59 59 58 59 59 60 60 59 59 56 57 58 56 56 56 55 57 57 58 58 59 58 57 57 58 58 59 59 59 58 59 59 59 60 59 58 59 60 59 60 59 58 59 59 58 59 55 57 55 54 54 56 56 55 55 53 52 53 54 54 52 53 55
58 59 59 58 60 60 59 60 59 58 56 57 58 56 57 54 57 56 56 58 59 58 58 58 58 58 58 58 59 59 59 58 59 59 58 58 61 61 59 59 58 58 57 57 57 57 58 57 55 54 55 55 53 53 54 51 48 46 45 47 47 49 50
59 60 59 59 59 59 58 58 58 58 58 57 57 58 57 56 57 57 58 58 59 59 58 56 57 56 56 57 58 58 58 58 57 58 58 59 61 60 60 58 57 57 57 55 56 56 56 56 56 55 56 55 53 52 52 48 45 42 38 41 43 44 44
59 58 59 59 57 58 58 56 58 57 58 57 58 56 58 56 57 58 59 59 58 59 58 57 57 57 57 56 56 56 57 57 58 58 58 58 59 58 58 59 59 59 59 58 57 57 57 58 57 54 55 54 52 50 49 47 43 39 37 37 39 42 42
58 58 59 59 58 58 57 58 57 55 56 55 55 55 55 57 57 58 58 57 57 59 58 57 57 57 57 55 55 57 57 56 57 57 55 58 58 56 56 56 57 57 57 59 59 59 59 58 58 55 56 54 51 50 50 47 43 43 40 38 37 37 37
59 59 58 58 59 58 58 59 58 56 56 56 55 55 54 55 57 58 59 58 58 57 57 57 57 56 56 54 55 55 55 56 56 55 55 57 58 58 57 55 56 55 56 59 60 59 58 57 56 57 56 54 53 50 48 44 45 40 41 39 39 39 38
58 58 58 58 59 58 58 59 59 57 57 56 53 55 55 56 57 58 57 57 57 57 56 56 56 55 55 55 53 55 55 56 55 54 55 56 55 57 58 56 56 56 56 58 58 59 58 58 57 56 56 53 53 53 49 46 45 43 41 38 37 37 38
58 59 58 58 59 59 59 59 58 58 57 55 55 55 55 55 57 57 57 57 56 56 55 54 54 53 53 53 53 55 55 55 55 54 54 55 56 56 56 56 55 55 56 57 58 58 57 60 59 59 58 56 52 49 48 46 45 43 43 41 39 38 37
59 59 58 58 59 59 60 59 59 58 57 56 55 54 56 56 57 56 56 55 55 54 54 53 53 53 54 54 54 54 54 55 55 54 54 54 54 54 54 54 54 54 54 56 58 59 59 60 60 60 61 59 58 51 50 48 46 43 43 45 42 40 38
59 58 58 58 58 59 60 60 59 57 56 55 54 55 55 56 57 56 55 54 54 54 53 53 52 53 53 53 55 54 54 55 54 54 54 54 54 54 54 55 54 52 54 55 55 59 60 60 62 60 60 58 59 54 54 49 48 49 48 46 44 40 43
59 58 57 58 59 58 58 58 58 57 57 56 54 55 55 54 56 56 55 54 53 53 53 53 53 52 51 52 53 53 53 54 53 52 53 53 53 53 53 53 53 52 53 54 53 55 59 59 58 60 57 58 57 56 54 51 48 49 48 44 44 44 43
58 57 58 59 58 57 57 57 57 58 57 55 55 53 53 53 54 55 52 52 51 53 53 52 51 51 51 51 53 52 53 52 51 51 51 52 52 52 51 50 50 51 51 51 50 51 52 57 59 57 56 57 57 57 55 53 51 48 49 45 43 41 41
59 58 59 58 58 58 58 58 57 58 56 55 54 54 53 53 51 53 52 51 51 52 52 51 51 51 50 50 50 51 50 49 49 50 51 51 50 51 49 47 47 48 49 50 49 48 47 49 56 58 57 57 56 54 52 52 50 49 48 46 44 42 42
60 59 59 59 58 57 58 58 58 57 57 55 54 53 52 54 52 51 50 50 51 50 50 48 49 49 48 49 50 50 49 48 47 49 51 48 50 50 50 47 45 47 49 48 47 46 47 47 48 52 57 53 51 52 53 51 50 49 48 47 44 44 43
60 59 59 59 58 56 57 58 57 58 55 55 54 53 52 54 51 50 50 52 50 49 48 47 49 47 47 47 46 48 47 45 45 47 48 47 45 49 48 47 46 48 49 47 47 50 51 50 50 51 52 51 52 53 54 52 50 48 48 46 46 43 44
62 62 60 60 59 58 58 57 57 57 55 55 52 54 53 52 53 53 52 51 49 48 48 48 47 45 44 45 44 41 39 41 42 45 46 46 46 47 47 46 46 47 47 45 47 51 51 53 52 52 53 53 54 53 52 51 50 49 47 44 46 41 44
62 61 61 60 59 57 57 57 57 55 55 54 53 54 52 52 53 51 52 49 48 48 47 46 45 45 45 45 39 37 38 40 45 46 48 46 46 47 46 45 44 45 46 46 49 50 52 53 49 52 52 50 52 52 50 48 48 48 47 46 44 43 43
61 60 60 60 60 58 57 58 57 57 55 53 53 53 53 52 50 50 48 47 46 46 45 46 44 42 41 39 38 42 45 45 45 45 46 47 47 47 47 45 45 45 44 46 48 50 51 51 50 49 49 48 46 48 48 47 48 48 48 46 46 44 44
60 60 60 59 59 57 56 57 56 55 55 54 53 52 52 50 51 49 48 47 46 46 46 45 46 44 40 35 36 41 45 47 47 48 47 46 46 46 45 45 46 46 45 46 47 48 49 51 50 50 50 50 48 49 48 48 46 46 47 47 45 45 43
61 60 59 58 57 57 56 57 57 56 55 53 52 50 50 50 50 49 49 47 47 47 47 46 44 43 40 38 38 40 43 45 44 46 47 45 46 45 45 46 47 47 48 48 51 50 50 48 48 48 48 48 48 47 46 45 45 43 45 46 44 42 42
60 59 59 58 58 58 57 56 56 55 55 54 53 51 51 50 49 48 48 49 47 47 47 47 45 45 42 37 37 39 40 40 42 41 41 41 43 44 44 46 48 48 47 46 46 46 47 47 50 46 47 46 45 44 43 43 43 42 43 44 44 45 43
59 59 59 58 57 58 57 57 56 55 55 53 53 52 51 50 48 48 48 48 47 48 48 48 51 45 45 40 35 33 39 40 38 39 39 40 42 43 43 45 46 46 45 45 44 43 42 42 44 49 50 48 43 42 41 42 41 41 42 41 40 41 42
59 59 59 58 58 57 56 56 56 55 55 53 53 53 52 50 49 49 48 48 49 49 49 46 43 38 37 40 40 38 37 38 38 38 38 39 40 42 43 43 46 46 44 42 41 41 39 40 39 40 40 42 42 49 44 40 40 41 38 40 40 39 39
59 58 59 57 57 56 56 56 56 55 54 54 54 54 53 51 50 50 50 48 50 50 49 47 36 37 38 39 44 37 37 37 37 36 35 35 36 39 42 44 45 46 48 45 42 41 41 40 39 39 38 39 39 37 37 48 44 40 41 40 39 39 40
58 58 58 57 56 56 56 55 55 55 54 55 55 54 53 52 51 50 50 49 49 49 50 38 36 37 38 39 39 41 33 35 34 33 32 33 35 36 38 40 42 39 34 44 42 41 40 40 41 40 41 42 41 39 35 36 37 46 44 42 40 40 39
58 58 58 58 57 56 56 55 56 56 55 55 55 54 54 53 53 51 50 49 49 50 50 39 36 37 37 37 37 39 35 36 36 33 31 31 32 34 34 34 34 36 37 40 42 42 41 41 43 44 42 39 37 41 40 37 37 38 42 45 43 41 45
57 59 58 58 57 56 56 56 56 55 55 55 54 54 54 54 53 52 50 49 49 50 51 38 36 36 36 37 37 38 39 38 37 37 35 35 34 35 34 33 33 32 34 35 41 45 39 38 38 39 40 41 42 43 45 45 45 44 40 44 47 47 46
58 58 58 57 57 57 57 57 56 56 56 55 55 54 54 54 53 53 51 50 49 49 55 36 35 35 36 36 36 41 41 40 40 37 36 35 32 32 32 32 32 33 33 31 40 35 39 37 36 37 38 38 38 38 38 38 38 39 45 46 47 47 47
59 59 58 58 57 58 57 57 57 57 56 55 54 53 54 54 53 53 51 50 50 50 54 40 35 35 35 36 36 38 42 39 41 40 39 37 33 33 33 30 31 30 31 30 35 32 33 40 36 36 36 37 37 35 36 36 39 38 38 38 38 38 38
58 59 58 59 59 58 58 58 57 58 58 54 54 54 53 53 53 52 52 51 50 50 52 44 36 35 35 36 36 39 40 40 43 43 41 40 38 34 35 42 41 33 33 31 34 32 33 43 34 35 36 36 35 35 35 35 32 38 37 37 37 37 37
57 58 58 57 57 57 58 58 60 59 56 55 55 54 53 52 52 52 52 52 52 50 51 47 36 35 35 35 37 41 40 38 43 43 42 41 41 37 34 31 42 44 36 41 32 33 33 41 35 36 36 35 33 36 37 38 37 38 41 40 42 43 42
57 58 57 59 58 57 58 58 59 58 56 54 54 53 53 52 52 52 53 52 53 51 50 53 42 35 35 35 35 41 41 37 41 44 42 40 41 40 35 33 38 36 34 32 32 33 34 35 42 36 37 36 36 35 38 40 39 36 36 37 40 42 44
57 58 58 58 59 59 60 57 58 56 56 54 54 53 54 53 52 52 52 53 52 52 50 52 46 36 35 35 34 38 42 40 41 42 41 40 39 41 38 34 32 37 34 32 33 34 33 34 36 42 39 41 42 41 36 34 36 35 38 37 37 38 40
58 58 58 58 59 59 58 57 56 56 55 54 54 54 55 53 52 52 53 53 53 53 52 52 51 38 35 35 33 34 42 42 41 41 41 39 37 40 40 37 36 36 34 32 33 34 34 34 34 40 45 35 35 35 42 37 36 35 33 33 31 31 33
57 56 58 58 58 59 58 57 58 56 55 54 54 54 55 54 53 53 52 52 52 52 52 51 47 44 36 35 34 33 36 40 37 45 42 40 40 39 40 41 40 37 34 33 33 34 34 34 37 40 35 35 34 34 39 39 36 35 30 29 31 32 32
55 56 56 58 58 58 57 57 57 58 55 53 53 53 53 53 53 52 52 52 52 51 52 51 46 44 41 35 34 33 33 35 37 42 43 41 41 39 40 42 41 32 33 33 33 34 34 35 35 35 35 35 35 35 36 37 35 36 31 27 28 28 30

ECMWFFLT1_sfc_dewp_252.txt.gz
Dewpoint
63 61 63 65 65 65 65 65 67 63 63 63 63 62 55 61 57 63 60 62 62 57 59 63 62 63 61 61 61 61 60 60 61 60 59 59 60 60 61 63 62 60 59 61 59 57 57 53 54 56 56 57 58 59 56 54 54 56 56 56 53 51 50
63 63 63 62 64 65 64 66 66 61 63 62 63 61 59 60 62 63 61 59 62 62 59 64 60 62 62 62 61 61 61 59 61 61 61 60 60 61 60 60 61 60 61 61 60 60 58 54 53 54 54 56 54 51 52 51 51 52 52 52 50 48 47
62 62 62 62 64 64 64 64 67 67 66 65 64 63 61 57 59 59 57 60 63 60 61 60 61 61 60 61 60 61 61 60 61 60 61 61 61 61 59 61 59 59 61 59 59 59 57 57 54 54 54 53 50 51 52 50 48 48 46 48 44 42 41
62 62 64 60 64 62 63 63 64 65 66 65 67 69 62 59 62 61 60 60 60 62 61 61 60 59 60 61 62 61 61 60 60 60 61 61 60 61 59 61 61 61 59 58 59 59 58 56 54 55 56 52 47 48 48 46 45 44 42 44 43 43 42
61 57 61 59 60 58 61 63 64 66 63 66 64 67 61 60 62 64 62 62 61 62 61 62 62 60 59 59 61 60 60 60 61 59 60 60 60 60 60 60 60 59 60 60 60 59 58 56 56 55 55 51 47 44 49 50 44 42 40 40 41 42 42
61 60 60 61 62 62 62 62 63 62 63 61 62 66 60 60 66 67 67 66 67 66 63 62 62 61 61 60 60 59 60 59 58 58 61 59 60 60 60 61 60 59 60 62 63 61 59 58 56 56 54 53 48 48 47 48 46 43 40 40 39 40 41
63 63 63 62 62 64 64 64 62 62 63 63 62 62 62 62 63 60 60 63 62 62 61 62 61 60 60 59 57 59 57 59 58 60 59 59 60 60 61 60 59 59 60 62 62 60 59 57 56 55 53 52 50 48 49 45 43 40 41 40 39 39 39
64 63 64 63 64 62 64 63 63 63 63 62 62 61 60 62 61 65 60 62 62 60 59 61 59 59 62 59 59 60 59 60 58 59 58 58 59 58 60 60 60 60 60 61 62 60 60 58 57 56 53 51 51 49 48 46 41 37 40 35 35 39 41
63 63 63 63 65 64 63 62 62 63 63 62 60 60 58 60 60 60 59 60 59 60 60 59 59 58 60 60 60 59 58 57 58 58 58 57 58 57 60 58 59 59 59 61 62 62 61 60 59 58 56 53 50 48 50 46 46 44 43 39 39 40 40
62 62 62 62 62 63 64 63 64 62 63 62 59 62 57 61 59 60 61 62 58 58 56 59 56 59 56 58 59 59 60 59 58 57 58 58 58 58 59 58 58 59 58 61 61 61 61 61 60 60 61 57 56 50 48 46 47 46 44 45 43 42 40
61 60 61 61 61 62 63 64 64 63 60 60 60 58 59 60 61 57 61 60 61 59 57 58 57 56 59 59 61 59 60 57 56 61 60 55 57 56 58 58 58 58 60 59 61 62 61 60 60 60 60 59 59 56 53 47 47 49 49 48 45 44 45
61 60 59 60 61 59 59 61 62 62 61 61 60 60 59 59 60 55 59 59 57 56 57 59 56 57 58 57 59 58 60 59 57 59 58 57 56 55 56 56 60 61 56 59 61 61 62 61 60 60 61 60 58 57 56 51 47 51 51 48 47 45 46
60 59 59 60 60 59 58 59 60 62 62 60 60 59 57 57 59 58 58 57 58 58 58 58 59 58 58 61 57 56 59 55 55 56 56 58 58 57 56 56 55 56 56 56 59 58 60 61 61 61 60 59 58 58 58 53 49 49 52 48 47 44 44
62 60 60 59 60 59 60 60 60 62 60 60 59 59 58 57 56 57 55 56 55 55 55 57 58 57 57 57 61 57 55 54 53 56 56 56 55 56 55 52 54 54 54 55 54 53 57 58 59 59 59 59 59 59 57 53 48 48 50 49 48 45 44
62 62 61 61 60 60 60 61 62 61 60 59 59 57 54 59 59 56 55 53 53 56 56 55 54 57 56 57 55 55 54 54 54 54 55 55 53 54 54 52 51 53 52 54 52 50 52 57 57 58 58 57 57 57 57 52 49 48 47 47 47 45 45
62 63 63 63 60 59 60 61 61 60 60 60 59 59 58 59 56 56 55 57 55 54 56 54 55 55 55 52 52 54 53 51 51 52 52 53 52 51 53 52 52 52 54 53 53 57 54 53 56 56 56 56 56 56 55 54 50 48 46 47 45 44 45
61 62 62 63 62 60 60 61 62 61 60 60 58 60 60 57 56 58 57 54 53 57 55 55 53 54 53 53 52 50 51 50 50 51 51 52 50 52 52 52 51 49 52 52 51 59 55 57 53 55 56 55 56 54 54 54 51 48 47 46 44 42 46
61 62 63 63 62 62 61 61 62 59 60 60 58 58 58 57 58 54 56 53 52 52 53 52 51 50 51 50 48 49 46 49 49 51 52 49 46 52 51 51 48 52 52 54 54 54 55 55 51 55 53 52 53 54 54 53 51 51 47 45 45 46 45
61 61 62 63 63 63 62 60 61 60 58 57 58 58 56 57 53 52 51 50 50 50 50 52 51 50 47 47 50 51 51 51 50 50 51 52 52 52 50 50 52 51 51 52 52 53 54 54 53 52 52 52 50 52 53 52 51 49 48 45 46 45 46
61 61 62 63 63 63 62 62 61 57 59 58 57 57 56 55 56 52 51 51 51 54 51 50 53 52 49 42 46 47 51 50 51 53 51 50 50 51 51 49 50 49 48 48 50 50 51 53 54 53 53 54 52 53 50 51 50 51 50 46 46 45 46
63 63 63 64 63 62 62 62 62 58 57 57 57 55 54 55 56 53 55 54 53 57 53 51 51 48 49 46 50 50 50 51 51 50 50 50 51 49 50 49 47 47 45 45 46 44 47 50 53 53 53 52 51 52 51 52 49 48 50 47 46 45 46
64 64 63 63 63 63 63 62 62 60 58 58 58 55 56 55 53 50 50 57 54 54 52 53 52 52 51 44 49 50 50 50 50 50 49 49 49 49 47 46 46 47 48 48 47 46 46 48 48 47 47 48 50 54 52 49 51 49 49 49 47 47 47
62 63 62 62 62 62 62 62 62 61 61 60 58 58 57 57 53 53 51 52 55 55 53 53 52 49 50 51 48 42 51 50 48 49 48 49 49 46 44 44 47 47 48 48 45 42 41 42 44 44 42 43 45 46 48 50 49 50 48 48 47 47 46
61 61 61 62 63 62 62 62 62 61 61 60 60 58 58 57 58 56 51 54 55 57 55 49 44 38 38 42 52 52 49 49 48 49 49 48 49 46 44 44 47 48 47 45 43 41 41 40 40 39 39 41 44 41 43 44 44 49 49 48 49 47 47
61 61 62 60 61 62 62 62 61 61 62 61 60 60 58 57 57 58 57 54 55 55 54 47 38 38 38 37 42 51 51 49 49 49 48 49 47 47 46 47 49 50 48 46 44 41 42 42 40 39 38 37 36 37 38 37 41 42 45 48 47 47 46
60 61 61 61 61 62 61 60 61 60 60 61 61 60 59 57 57 57 57 54 55 54 51 41 39 38 37 36 36 48 49 48 49 49 48 47 47 47 48 49 50 48 40 42 44 43 42 42 42 43 43 43 40 37 39 41 41 43 43 46 48 48 49
59 61 62 62 62 61 61 61 61 60 60 60 60 59 59 57 56 56 55 54 55 55 49 42 38 38 37 35 35 38 47 49 49 48 46 47 46 47 47 47 46 45 46 47 48 45 44 46 46 47 47 42 45 48 46 43 43 44 49 50 50 49 49
56 56 58 60 61 61 60 61 60 60 60 59 59 59 59 57 57 56 56 54 54 55 49 40 38 37 37 35 35 37 48 47 48 48 48 48 49 48 46 46 45 44 44 47 43 44 46 45 47 47 47 46 43 42 40 39 39 43 46 47 47 46 45
54 55 55 57 58 60 61 60 59 59 59 59 59 60 60 59 58 56 56 55 54 54 50 38 37 37 36 35 35 45 47 47 49 47 46 47 47 47 47 46 45 44 45 42 44 39 41 45 45 45 45 41 41 41 38 39 38 38 42 42 43 43 40
49 50 52 56 56 60 60 61 61 60 59 59 59 58 58 59 59 57 56 55 53 54 48 40 37 37 36 35 37 41 44 46 46 48 47 46 46 45 46 44 45 44 43 41 37 34 37 46 45 44 43 42 41 40 40 41 39 38 38 37 37 37 37
46 46 47 49 57 59 61 61 61 62 60 59 59 59 59 59 59 59 57 55 53 53 48 42 38 37 36 34 41 42 43 46 46 45 47 46 46 44 49 46 42 42 39 37 33 34 36 44 46 44 43 42 41 39 39 40 38 39 37 37 37 37 37
46 47 47 48 56 59 60 60 60 60 59 59 59 59 60 60 59 59 58 57 57 54 49 43 38 37 36 35 39 42 43 43 46 45 44 44 46 43 45 47 53 44 37 37 33 34 36 44 46 44 43 43 39 39 40 40 39 40 40 40 42 43 42
49 49 47 49 53 58 59 60 59 57 57 59 59 59 59 58 59 58 59 59 59 56 51 44 41 37 37 35 37 39 41 45 45 45 44 41 42 43 42 42 42 35 31 31 33 34 34 34 43 47 45 42 42 40 40 41 41 40 42 43 42 44 44
47 47 48 49 50 60 58 59 59 57 57 58 57 57 58 58 58 58 58 59 59 58 53 46 41 37 37 36 36 39 39 43 47 45 45 41 40 41 38 38 34 31 29 31 33 34 33 33 38 48 44 44 45 46 43 42 42 41 45 45 45 45 44
48 47 47 49 50 57 58 57 56 58 57 57 57 57 57 56 57 58 58 58 58 59 57 49 47 38 37 36 36 36 41 43 50 51 44 43 41 40 37 37 31 30 29 31 32 33 32 34 38 41 41 35 37 41 43 43 42 43 43 43 44 44 43
43 37 45 49 45 46 59 58 57 57 57 57 57 57 57 57 56 57 57 58 58 58 58 51 45 42 38 36 36 36 38 41 41 52 52 47 44 44 38 38 35 32 29 31 33 33 33 35 40 38 33 34 34 35 41 41 37 39 38 37 38 40 41
41 43 46 47 44 45 46 53 60 59 59 57 56 56 56 55 55 56 56 56 57 58 58 56 46 42 41 36 36 36 36 37 39 47 52 50 51 48 42 38 33 29 29 31 33 33 32 34 39 34 33 33 33 36 42 43 42 44 45 40 42 40 40

ECMWFFLT1_sfc_dewp_258.txt.gz
Dewpoint
59 59 58 57 59 60 58 58 60 60 59 59 57 55 53 58 58 56 57 57 57 58 59 57 57 57 57 58 59 57 57 57 56 55 55 56 55 56 60 59 59 59 58 57 55 54 53 52 53 54 54 56 58 57 54 48 45 44 43 43 43 44 45
59 61 60 61 61 60 58 58 58 59 60 58 58 54 55 56 58 57 56 57 57 58 59 57 56 57 57 56 56 55 55 55 57 59 56 55 56 55 56 56 57 56 57 57 57 55 52 51 52 51 48 52 55 57 52 44 43 43 43 43 44 44 48
58 57 57 58 57 58 57 58 59 58 60 56 57 58 55 56 56 58 57 57 57 58 59 56 55 55 55 55 56 56 55 54 55 55 57 56 56 56 57 56 55 55 55 55 55 53 53 52 51 50 47 48 50 51 49 43 41 40 39 41 41 42 43
58 57 57 57 57 57 56 57 57 58 58 57 58 58 55 56 56 59 57 57 57 60 59 56 55 54 54 55 54 55 55 54 54 55 56 56 56 55 56 55 55 56 54 53 54 53 52 50 50 51 50 46 47 45 44 42 41 40 40 41 40 42 43
58 58 57 57 58 58 57 56 57 58 58 59 58 55 53 55 59 57 60 57 59 55 54 56 56 55 54 54 54 55 54 53 54 56 55 55 55 55 55 55 56 56 55 54 55 54 54 52 51 50 46 44 43 43 44 42 42 41 40 40 41 42 44
59 58 58 58 57 57 57 57 57 57 57 57 56 56 53 55 59 52 53 55 55 57 58 56 55 55 53 53 53 53 53 53 53 55 54 54 54 54 54 55 56 56 55 55 56 55 53 54 52 48 45 45 42 42 42 42 42 42 41 40 40 41 43
58 58 58 58 58 58 58 58 58 58 58 57 57 58 55 56 58 56 56 54 57 55 56 54 53 54 53 52 53 52 52 53 53 54 53 54 54 55 55 54 55 55 56 57 55 55 54 53 50 46 46 46 42 41 42 41 40 39 41 43 42 42 43
59 58 58 59 58 57 57 57 58 59 58 58 58 56 59 57 57 57 56 56 56 54 54 51 55 54 55 53 54 53 55 53 53 55 54 54 54 54 54 54 55 55 56 56 55 55 55 54 51 47 45 43 44 42 43 40 40 39 40 40 41 41 42
62 61 60 60 59 58 58 58 58 59 59 59 58 57 54 56 55 55 56 54 54 53 54 53 53 53 53 52 52 52 52 57 53 52 53 53 52 53 54 54 55 54 55 56 56 55 54 54 53 49 45 43 42 42 40 38 39 39 40 39 40 40 41
60 60 60 59 60 59 58 58 58 59 59 58 58 58 51 54 56 55 55 55 54 53 53 53 52 52 52 52 52 52 51 52 53 53 52 52 53 52 54 55 54 54 55 56 57 56 55 55 54 50 49 45 44 41 37 37 38 38 38 40 38 38 40
61 61 60 60 60 60 59 59 58 58 58 58 58 59 56 51 55 62 56 55 54 54 52 53 53 52 51 51 51 51 52 52 51 52 54 53 52 53 53 52 53 53 55 55 56 56 56 56 55 53 53 52 48 41 39 37 37 39 39 40 42 39 40
61 61 60 60 60 60 60 59 58 58 58 58 59 58 56 53 55 55 52 53 53 53 52 52 52 51 50 50 52 51 51 50 50 49 51 52 52 52 51 51 51 51 52 55 56 56 56 56 55 55 55 54 50 49 43 40 40 43 40 40 42 39 40
61 61 60 60 59 59 60 60 59 59 58 59 58 58 55 54 55 55 55 53 53 52 52 52 53 52 51 50 50 49 49 50 49 48 50 51 51 51 50 50 50 49 51 55 55 55 55 55 56 55 55 54 54 50 46 44 41 41 44 42 40 38 39
60 60 60 60 59 59 59 60 60 60 60 59 59 58 57 56 56 56 55 55 53 53 53 52 51 52 51 50 50 49 48 49 47 47 50 50 50 49 50 49 48 48 49 51 53 54 55 55 55 55 55 54 54 51 46 45 43 43 46 44 40 39 40
59 60 60 60 60 60 60 60 60 60 60 60 59 59 58 58 57 56 55 55 55 54 53 51 50 50 51 50 48 49 47 46 45 46 46 46 48 48 48 47 45 45 49 49 48 50 56 55 55 55 54 55 54 51 48 47 45 42 42 41 40 40 41
59 59 59 59 59 60 60 60 60 60 59 59 60 59 59 59 58 56 55 55 55 54 53 51 50 48 48 48 46 47 49 45 44 43 44 46 48 48 48 47 46 47 50 49 49 49 53 54 55 55 55 55 54 51 49 47 44 43 41 40 39 39 40
59 58 58 58 58 59 59 59 60 59 59 59 60 60 59 59 58 56 55 55 55 53 53 51 49 47 47 47 48 48 47 45 43 44 44 45 47 47 46 47 47 48 49 49 48 49 50 51 54 55 54 53 53 51 49 47 45 43 41 38 39 39 40
58 59 59 59 58 59 59 59 59 60 59 59 59 59 59 59 58 57 56 54 54 52 51 49 47 48 47 45 43 44 44 44 43 43 46 46 53 47 48 47 47 47 47 47 46 47 48 49 53 55 54 54 53 51 50 47 45 43 40 38 39 41 41
58 58 58 59 59 59 59 60 60 60 60 59 59 59 59 59 59 57 55 54 53 53 50 48 47 46 44 44 43 42 44 43 43 44 45 46 46 47 47 46 46 46 45 45 44 45 47 48 50 54 53 53 52 51 49 47 45 43 40 39 40 42 41
58 58 58 58 59 59 59 59 60 60 60 59 59 58 59 58 58 58 57 56 54 53 51 49 47 45 43 42 42 43 44 44 46 46 45 47 47 47 46 45 44 44 43 43 43 44 46 46 47 48 51 52 51 51 49 47 45 43 41 41 41 41 40
58 58 58 58 58 58 58 59 59 59 59 59 58 58 58 58 58 58 57 55 54 53 52 50 48 45 42 41 41 41 43 44 44 44 46 46 46 45 44 44 43 42 42 42 42 42 44 44 43 43 44 50 52 51 49 47 45 43 42 42 41 41 40
57 58 58 58 58 58 58 58 58 58 58 59 59 58 58 58 58 58 57 57 55 53 52 50 48 44 42 40 41 41 44 46 45 44 46 45 44 45 44 43 43 43 47 49 48 48 48 48 42 41 42 47 51 51 48 47 45 44 43 42 41 41 40
55 54 55 57 57 57 58 58 58 58 58 58 59 59 59 59 58 58 57 56 56 53 52 50 51 49 46 41 41 41 44 45 45 45 45 44 42 43 43 44 48 51 49 47 46 44 44 45 46 42 40 44 47 47 46 46 45 44 43 42 42 41 39
47 48 51 53 56 57 57 58 57 57 57 58 58 58 59 58 58 58 57 57 56 54 52 49 49 43 42 45 43 43 43 44 45 45 44 41 41 44 44 44 45 48 47 47 42 42 41 42 42 43 44 47 46 42 43 44 44 44 43 42 42 41 39
44 45 47 48 53 56 57 56 56 56 56 56 57 57 56 57 58 58 58 57 56 55 53 51 44 41 41 42 46 44 43 43 45 44 43 40 41 43 43 43 42 41 38 39 40 40 42 44 43 43 43 43 43 43 44 44 44 43 44 43 42 41 40
43 43 44 47 50 54 55 55 55 56 56 56 56 56 56 56 55 56 57 56 56 55 53 49 42 40 40 40 42 45 42 42 43 43 43 41 40 40 42 43 42 42 39 46 46 38 40 45 48 46 46 46 46 43 40 41 45 45 45 45 43 43 42
42 42 43 44 47 50 52 53 54 54 55 55 55 55 55 55 55 55 56 56 55 55 53 49 43 40 40 40 41 41 42 41 41 41 43 43 40 39 40 41 42 43 41 45 39 38 40 42 41 38 36 36 37 42 44 44 44 45 47 46 45 43 45
41 41 41 42 43 45 49 51 52 54 54 54 54 54 54 54 55 56 56 56 55 54 55 48 43 40 39 40 40 42 42 43 40 39 43 44 42 40 41 43 44 44 42 43 40 40 40 41 40 38 35 34 35 36 37 38 40 41 43 42 42 43 43
40 40 40 40 40 41 45 48 50 52 54 54 53 53 54 54 55 55 56 56 55 54 54 45 42 40 38 38 39 44 42 42 40 40 42 44 43 43 44 45 44 41 42 42 47 44 45 43 39 36 34 33 33 33 35 42 39 40 42 39 39 41 41
40 40 40 39 39 41 44 46 49 51 53 53 52 51 52 53 54 55 56 56 55 54 52 45 42 41 39 38 39 41 41 41 41 41 41 43 44 44 45 43 41 40 41 41 43 41 42 44 37 35 34 33 33 32 33 35 39 37 38 38 37 37 38
41 41 39 39 39 40 42 44 46 48 50 52 52 52 52 54 54 54 55 56 56 55 54 48 42 42 40 38 40 40 39 40 41 40 40 41 42 42 44 49 46 40 38 38 39 40 41 42 37 35 34 33 31 29 30 34 36 37 39 37 37 37 37
41 40 39 39 39 40 41 42 43 45 48 50 51 51 52 53 54 53 53 55 58 57 55 52 42 41 41 39 39 39 39 38 40 40 39 38 38 39 44 51 49 44 39 40 36 40 40 42 37 36 36 34 33 29 30 32 33 33 33 34 35 39 40
40 40 39 38 38 39 40 40 40 42 45 49 51 52 51 51 52 53 52 52 54 55 55 53 48 40 41 40 38 39 38 38 40 41 38 36 38 38 41 46 47 40 38 36 36 39 41 40 38 38 36 34 32 31 32 33 35 33 35 36 35 39 40
38 39 38 38 38 38 38 38 40 41 45 48 50 50 50 50 51 51 52 51 52 52 54 54 51 41 40 41 39 40 36 37 39 41 38 40 38 39 39 43 42 40 37 35 35 37 39 39 41 39 36 35 34 37 37 34 41 44 36 40 40 39 39
38 39 39 39 37 37 37 38 39 40 44 46 44 45 46 46 48 49 51 51 52 54 54 55 53 45 40 40 40 38 39 37 41 42 38 38 38 38 38 38 39 39 35 34 35 35 35 37 40 42 38 36 36 37 37 38 39 40 38 38 38 38 38
38 38 39 39 38 37 37 39 39 39 43 43 42 42 43 43 45 47 48 50 51 52 53 54 50 50 43 39 40 39 39 39 39 46 40 38 38 38 38 36 38 40 34 34 34 34 36 38 42 41 38 37 36 36 40 39 39 40 38 38 38 36 37
38 38 39 38 38 38 38 39 38 38 41 43 41 41 41 41 43 44 46 47 48 49 51 53 51 47 47 41 39 39 38 38 37 41 45 40 38 39 37 35 36 36 33 33 33 35 37 39 37 36 37 37 36 38 40 39 37 39 38 37 37 36 36